M I D A S
Marine Information and Data Acquisition System
Tripno 878 of the Zeeleeuw from 2005-04-06 07:09:20 to 2005-04-06 10:59:48
Back to CruiseResearch ActivitiesStationsMapUnderway DataData graphs

EquipmentUnitsComment
TimeDGPSUTC
LatitudeDGPSDM.mWGS84
LongitudeDGPSDM.mWGS84
TemperatureSBE03/SBE38deg celciusITS90
ConductivitySBE21S/mITS90
SalinitySBE21 Practical Salinity Units
ChlorophylAChelsea fluorimeterg/lCalibrated in Aceton
Missing or incorrect values are displayed as -999
Sea surface data collected by the RV Zeeleeuw from 2005-04-06 07:07:31 to 2005-04-06 11:13:34
                                                                                    Next 1000 lines
Time Latitude Longitude Temperature Conductivity Salinity ChlorophylA
2005-04-06 07:07:41 51°13.596 2°56.097 13.241 0.066384 0.405348 -0.882377
2005-04-06 07:07:46 51°13.597 2°56.093 13.2476 0.066384 0.405355 -0.882377
2005-04-06 07:07:51 51°13.598 2°56.088 13.2747 0.066384 0.405355 -0.882377
2005-04-06 07:07:57 51°13.6 2°56.081 13.2635 0.066384 0.405363 -0.882377
2005-04-06 07:08:02 51°13.602 2°56.076 13.2325 0.066384 0.405371 -0.882377
2005-04-06 07:08:07 51°13.604 2°56.068 13.2682 0.066384 0.405378 -0.848668
2005-04-06 07:08:12 51°13.607 2°56.06 13.2437 0.066384 0.405378 -0.848668
2005-04-06 07:08:17 51°13.609 2°56.052 13.2811 0.066384 0.405378 -0.882377
2005-04-06 07:08:22 51°13.612 2°56.044 13.2572 0.066384 0.405378 -0.848668
2005-04-06 07:08:27 51°13.614 2°56.037 13.2735 0.066384 0.405386 -0.882377
2005-04-06 07:08:32 51°13.617 2°56.029 13.2551 0.066384 0.405386 -0.882377
2005-04-06 07:08:37 51°13.619 2°56.021 13.3015 0.066384 0.405386 -0.882377
2005-04-06 07:08:42 51°13.622 2°56.013 13.2583 0.066384 0.405401 -0.848668
2005-04-06 07:08:47 51°13.624 2°56.005 13.2626 0.066384 0.405408 -0.882377
2005-04-06 07:08:52 51°13.627 2°55.997 13.2638 0.066384 0.405416 -0.848668
2005-04-06 07:08:57 51°13.629 2°55.987 13.3224 0.066384 0.405424 -0.848668
2005-04-06 07:09:01 51°13.632 2°55.98 13.3284 0.066384 0.405431 -0.882377
2005-04-06 07:09:07 51°13.635 2°55.971 13.3432 0.066384 0.405431 -0.882377
2005-04-06 07:09:12 51°13.639 2°55.959 13.3359 0.066384 0.405439 -0.882377
2005-04-06 07:09:17 51°13.643 2°55.949 13.3319 0.066384 0.405454 -0.882377
2005-04-06 07:09:22 51°13.646 2°55.941 13.3191 0.066384 0.405446 -0.882377
2005-04-06 07:09:27 51°13.65 2°55.932 13.3193 0.066384 0.405469 -0.882377
2005-04-06 07:09:32 51°13.653 2°55.922 13.3005 0.066384 0.405461 -0.882377
2005-04-06 07:09:37 51°13.656 2°55.913 13.3006 0.066384 0.405469 -0.882377
2005-04-06 07:09:41 51°13.658 2°55.906 13.3065 0.066384 0.405469 -0.882377
2005-04-06 07:09:47 51°13.66 2°55.896 13.3041 0.066384 0.405484 -0.882377
2005-04-06 07:09:52 51°13.663 2°55.885 13.2768 0.066384 0.405484 -0.848668
2005-04-06 07:09:57 51°13.665 2°55.875 13.2293 0.066384 0.405492 -0.882377
2005-04-06 07:10:02 51°13.667 2°55.866 13.2493 0.066384 0.405499 -0.848668
2005-04-06 07:10:07 51°13.668 2°55.856 13.2527 0.066384 0.405499 -0.848668
2005-04-06 07:10:12 51°13.67 2°55.844 13.3345 0.066384 0.405514 -0.848668
2005-04-06 07:10:17 51°13.672 2°55.835 13.3319 0.066384 0.405522 -0.848668
2005-04-06 07:10:23 51°13.673 2°55.823 13.3337 0.066384 0.405522 -0.882377
2005-04-06 07:10:27 51°13.674 2°55.816 13.3413 0.066384 0.405529 -0.882377
2005-04-06 07:10:31 51°13.675 2°55.808 13.3468 0.066384 0.405537 -0.882377
2005-04-06 07:10:37 51°13.675 2°55.798 13.324 0.066384 0.405537 -0.882377
2005-04-06 07:10:42 51°13.676 2°55.793 13.2969 0.066384 0.405537 -0.882377
2005-04-06 07:10:47 51°13.677 2°55.787 13.2837 0.066384 0.405545 -0.882377
2005-04-06 07:10:52 51°13.677 2°55.783 13.2913 0.066384 0.405552 -0.882377
2005-04-06 07:10:56 51°13.677 2°55.781 13.3016 0.066384 0.405552 -0.882377
2005-04-06 07:11:01 51°13.677 2°55.779 13.347 0.066384 0.405552 -0.882377
2005-04-06 07:11:07 51°13.678 2°55.779 13.3501 0.066384 0.40556 -0.882377
2005-04-06 07:11:12 51°13.679 2°55.78 13.3834 0.066384 0.40556 -0.882377
2005-04-06 07:11:17 51°13.68 2°55.782 13.4043 0.066384 0.405567 -0.882377
2005-04-06 07:11:21 51°13.682 2°55.784 13.4146 0.066384 0.405567 -0.882377
2005-04-06 07:11:26 51°13.683 2°55.787 13.3686 0.066384 0.40559 -0.882377
2005-04-06 07:11:33 51°13.686 2°55.791 13.2113 0.066384 0.405613 -0.882377
2005-04-06 07:11:36 51°13.687 2°55.792 13.276 0.066384 0.405635 -0.848668
2005-04-06 07:11:41 51°13.689 2°55.794 13.3129 0.066384 0.405635 -0.848668
2005-04-06 07:11:46 51°13.689 2°55.794 13.1713 0.066384 0.405658 -0.848668
2005-04-06 07:11:52 51°13.689 2°55.794 13.1976 0.066384 0.405651 -0.882377
2005-04-06 07:11:57 51°13.689 2°55.794 13.3284 0.066384 0.405651 -0.848668
2005-04-06 07:12:01 51°13.688 2°55.794 13.3583 0.066384 0.405643 -0.882377
2005-04-06 07:12:07 51°13.688 2°55.794 13.3635 0.066384 0.405643 -0.882377
2005-04-06 07:12:11 51°13.689 2°55.794 13.3799 0.066384 0.405635 -0.882377
2005-04-06 07:12:17 51°13.691 2°55.796 13.3837 0.066384 0.405628 -0.916087
2005-04-06 07:12:21 51°13.693 2°55.797 13.3675 0.066384 0.405613 -0.848668
2005-04-06 07:12:27 51°13.696 2°55.797 13.2189 0.066384 0.405613 -0.848668
2005-04-06 07:12:32 51°13.699 2°55.798 13.1978 0.066384 0.405613 -0.916087
2005-04-06 07:12:37 51°13.7 2°55.798 13.2661 0.066384 0.405613 -0.916087
2005-04-06 07:12:42 51°13.701 2°55.799 13.2624 0.066384 0.40562 -0.882377
2005-04-06 07:12:46 51°13.701 2°55.799 13.287 0.066384 0.405635 -0.916087
2005-04-06 07:12:52 51°13.699 2°55.8 13.3626 0.066384 0.405651 -0.848668
2005-04-06 07:12:56 51°13.699 2°55.8 13.3631 0.066384 0.405658 -0.882377
2005-04-06 07:13:02 51°13.698 2°55.801 13.3656 0.066384 0.405666 -0.848668
2005-04-06 07:13:07 51°13.698 2°55.801 13.4028 0.066384 0.405666 -0.882377
2005-04-06 07:13:11 51°13.7 2°55.801 13.4058 0.066384 0.405666 -0.882377
2005-04-06 07:13:16 51°13.702 2°55.8 13.4324 0.066384 0.405658 -0.882377
2005-04-06 07:13:21 51°13.706 2°55.797 13.4254 0.066384 0.405658 -0.882377
2005-04-06 07:13:27 51°13.71 2°55.793 13.413 0.066384 0.405643 -0.848668
2005-04-06 07:13:31 51°13.713 2°55.788 13.3441 0.066384 0.405651 -0.882377
2005-04-06 07:13:37 51°13.717 2°55.781 13.3462 0.066384 0.405651 -0.882377
2005-04-06 07:13:41 51°13.72 2°55.775 13.2638 0.066384 0.405666 -0.882377
2005-04-06 07:13:46 51°13.724 2°55.767 13.2221 0.066384 0.405673 -0.848668
2005-04-06 07:13:52 51°13.729 2°55.758 13.1917 0.066384 0.405696 -0.882377
2005-04-06 07:13:57 51°13.733 2°55.751 13.2018 0.066384 0.405704 -0.882377
2005-04-06 07:14:02 51°13.737 2°55.743 13.1906 0.066384 0.405719 -0.848668
2005-04-06 07:14:06 51°13.741 2°55.736 13.1788 0.066384 0.405719 -0.848668
2005-04-06 07:14:11 51°13.745 2°55.728 13.1826 0.066384 0.405719 -0.882377
2005-04-06 07:14:17 51°13.75 2°55.719 13.1939 0.066384 0.405726 -0.882377
2005-04-06 07:14:22 51°13.756 2°55.709 13.2025 0.066384 0.405726 -0.882377
2005-04-06 07:14:27 51°13.762 2°55.7 13.2007 0.066384 0.405726 -0.848668
2005-04-06 07:14:30 51°13.766 2°55.694 13.2069 0.066384 0.405726 -0.882377
2005-04-06 07:14:37 51°13.774 2°55.682 13.2067 0.066384 0.405726 -0.882377
2005-04-06 07:14:41 51°13.781 2°55.675 13.2094 0.066384 0.405726 -0.882377
2005-04-06 07:14:47 51°13.788 2°55.666 13.2122 0.066384 0.405726 -0.848668
2005-04-06 07:14:52 51°13.796 2°55.658 13.2169 0.066384 0.405734 -0.848668
2005-04-06 07:14:56 51°13.803 2°55.651 13.2214 0.066384 0.405742 -0.882377
2005-04-06 07:15:01 51°13.81 2°55.643 13.2219 0.066384 0.405742 -0.882377
2005-04-06 07:15:07 51°13.819 2°55.635 13.2226 0.066384 0.405742 -0.882377
2005-04-06 07:15:11 51°13.826 2°55.629 13.2206 0.066384 0.405764 -0.848668
2005-04-06 07:15:15 51°13.833 2°55.624 13.2234 0.066384 0.405764 -0.882377
2005-04-06 07:15:22 51°13.846 2°55.614 13.232 0.066384 0.405764 -0.882377
2005-04-06 07:15:27 51°13.855 2°55.607 13.2509 0.066384 0.405772 -0.882377
2005-04-06 07:15:31 51°13.863 2°55.602 13.241 0.066384 0.405779 -0.882377
2005-04-06 07:15:37 51°13.874 2°55.593 13.2474 0.066384 0.405779 -0.882377
2005-04-06 07:15:42 51°13.884 2°55.586 13.2534 0.066384 0.405802 -0.848668
2005-04-06 07:15:47 51°13.893 2°55.579 13.2574 0.06628 0.405159 -0.882377
2005-04-06 07:15:51 51°13.901 2°55.573 13.2592 0.06628 0.405182 -0.848668
2005-04-06 07:15:57 51°13.913 2°55.565 13.233 0.06628 0.405189 -0.882377
2005-04-06 07:16:01 51°13.922 2°55.559 13.2386 0.06628 0.405205 -0.882377
2005-04-06 07:16:05 51°13.931 2°55.554 13.2665 0.06628 0.405205 -0.882377
2005-04-06 07:16:11 51°13.943 2°55.546 13.3054 0.066384 0.405855 -0.848668
2005-04-06 07:16:17 51°13.954 2°55.538 13.2803 0.06628 0.405205 -0.882377
2005-04-06 07:16:21 51°13.964 2°55.532 13.295 0.06628 0.405205 -0.882377
2005-04-06 07:16:27 51°13.975 2°55.524 13.2869 0.06628 0.405197 -0.848668
2005-04-06 07:16:31 51°13.985 2°55.517 13.29 0.06628 0.405197 -0.882377
2005-04-06 07:16:36 51°13.995 2°55.51 13.2838 0.06628 0.405197 -0.882377
2005-04-06 07:16:41 51°14.006 2°55.502 13.2943 0.06628 0.405197 -0.882377
2005-04-06 07:16:45 51°14.014 2°55.496 13.2982 0.06628 0.405212 -0.882377
2005-04-06 07:16:51 51°14.027 2°55.487 13.3148 0.06628 0.40522 -0.882377
2005-04-06 07:16:57 51°14.039 2°55.478 13.2809 0.06628 0.405242 -0.882377
2005-04-06 07:17:01 51°14.049 2°55.47 13.243 0.06628 0.405265 -0.882377
2005-04-06 07:17:07 51°14.061 2°55.462 13.2806 0.06628 0.405265 -0.882377
2005-04-06 07:17:11 51°14.072 2°55.454 13.2738 0.06628 0.405265 -0.882377
2005-04-06 07:17:17 51°14.084 2°55.445 13.2621 0.06628 0.405265 -0.848668
2005-04-06 07:17:22 51°14.096 2°55.437 13.2965 0.06628 0.405273 -0.882377
2005-04-06 07:17:26 51°14.105 2°55.43 13.298 0.06628 0.405273 -0.848668
2005-04-06 07:17:31 51°14.118 2°55.421 12.9808 0.06628 0.405273 -0.882377
2005-04-06 07:17:37 51°14.13 2°55.411 11.1348 0.06628 0.405273 -0.882377
2005-04-06 07:17:41 51°14.14 2°55.403 9.9617 0.066384 0.405598 -0.71383
2005-04-06 07:17:46 51°14.151 2°55.393 9.6408 0.110569 0.693521 -0.309317
2005-04-06 07:17:51 51°14.162 2°55.384 9.4718 0.182765 1.177102 -0.376736
2005-04-06 07:17:55 51°14.172 2°55.375 9.3358 1.459346 10.810832 3.971777
2005-04-06 07:18:01 51°14.186 2°55.362 9.1462 2.063516 16.115972 2.960494
2005-04-06 07:18:07 51°14.198 2°55.349 9.1246 2.780968 23.03904 3.499845
2005-04-06 07:18:11 51°14.207 2°55.339 9.036 2.780968 23.03904 3.499845
2005-04-06 07:18:16 51°14.219 2°55.325 9.0127 2.904625 24.805393 8.960768
2005-04-06 07:18:21 51°14.229 2°55.311 8.963 3.047048 26.725447 11.185589
2005-04-06 07:18:26 51°14.238 2°55.298 8.9258 3.056845 27.241666 10.646238
2005-04-06 07:18:31 51°14.248 2°55.284 8.9048 3.009897 27.052856 10.915913
2005-04-06 07:18:37 51°14.259 2°55.266 8.858 3.009897 27.052856 10.915913
2005-04-06 07:18:41 51°14.268 2°55.251 8.8417 3.007584 27.217537 8.724802
2005-04-06 07:18:45 51°14.274 2°55.24 8.8475 3.006954 27.325755 8.353999
2005-04-06 07:18:51 51°14.285 2°55.221 8.8125 2.968639 27.002934 8.320289
2005-04-06 07:18:56 51°14.295 2°55.203 8.7831 2.974535 27.123072 8.488836
2005-04-06 07:19:02 51°14.306 2°55.183 8.7774 2.939274 26.822257 8.118033
2005-04-06 07:19:05 51°14.312 2°55.173 8.7673 2.939274 26.822257 8.118033
2005-04-06 07:19:11 51°14.322 2°55.153 8.7365 2.940433 26.864866 8.219161
2005-04-06 07:19:17 51°14.333 2°55.13 8.7479 2.940854 26.905118 8.219161
2005-04-06 07:19:21 51°14.34 2°55.115 8.7459 2.929382 26.814788 7.983195
2005-04-06 07:19:27 51°14.352 2°55.092 8.7489 2.925383 26.799835 8.219161
2005-04-06 07:19:31 51°14.361 2°55.073 8.7634 2.911911 26.684784 7.915777
2005-04-06 07:19:37 51°14.371 2°55.052 8.6608 2.911911 26.684784 7.915777
2005-04-06 07:19:41 51°14.379 2°55.032 8.6843 2.918542 26.769166 7.983195
2005-04-06 07:19:46 51°14.387 2°55.011 8.682 2.922121 26.824027 8.084324
2005-04-06 07:19:51 51°14.394 2°54.987 8.6329 2.917384 26.785414 8.185452
2005-04-06 07:19:57 51°14.401 2°54.96 8.5959 2.890968 26.523674 8.219161
2005-04-06 07:20:01 51°14.406 2°54.939 8.5892 2.899914 26.616641 7.780939
2005-04-06 07:20:07 51°14.412 2°54.911 8.5489 2.905808 26.695511 7.511264
2005-04-06 07:20:12 51°14.416 2°54.881 8.5643 2.905808 26.695511 7.511264
2005-04-06 07:20:15 51°14.419 2°54.866 8.5809 2.914543 26.805824 7.71352
2005-04-06 07:20:22 51°14.425 2°54.835 8.5392 2.910965 26.778883 7.780939
2005-04-06 07:20:26 51°14.429 2°54.815 8.532 2.922122 26.916514 7.679811
2005-04-06 07:20:32 51°14.433 2°54.792 8.4727 2.92328 26.954027 7.477554
2005-04-06 07:20:37 51°14.436 2°54.772 8.4692 2.92328 26.954027 7.477554
2005-04-06 07:20:41 51°14.439 2°54.755 8.4615 2.962856 27.37982 7.612392
2005-04-06 07:20:46 51°14.442 2°54.738 8.4578 2.975276 27.521923 7.612392
2005-04-06 07:20:51 51°14.443 2°54.723 8.4322 2.990855 27.682947 7.544973
2005-04-06 07:20:57 51°14.445 2°54.704 8.4355 3.003276 27.827439 7.410136
2005-04-06 07:21:01 51°14.447 2°54.692 8.4175 3.012751 27.942663 7.646101
2005-04-06 07:21:06 51°14.449 2°54.677 8.4055 3.012751 27.942663 7.646101
2005-04-06 07:21:11 51°14.45 2°54.664 8.3968 3.023488 28.078928 7.780939
2005-04-06 07:21:17 51°14.452 2°54.649 8.4039 3.038437 28.25147 7.477554
2005-04-06 07:21:22 51°14.453 2°54.637 8.413 3.044017 28.315411 7.376426
2005-04-06 07:21:26 51°14.454 2°54.628 8.3819 3.053702 28.426941 7.578683
2005-04-06 07:21:31 51°14.456 2°54.615 8.3909 3.051175 28.410963 7.477554
2005-04-06 07:21:37 51°14.457 2°54.604 8.3959 3.066546 28.579173 7.544973
2005-04-06 07:21:41 51°14.457 2°54.597 8.3647 3.066546 28.579173 7.544973
2005-04-06 07:21:47 51°14.458 2°54.585 8.3639 3.046859 28.390567 7.612392
2005-04-06 07:21:52 51°14.459 2°54.576 8.358 3.065283 28.588324 7.376426
2005-04-06 07:21:57 51°14.46 2°54.568 8.3596 3.050755 28.444696 7.275298
2005-04-06 07:22:01 51°14.46 2°54.56 8.3601 3.075811 28.708301 7.207879
2005-04-06 07:22:07 51°14.461 2°54.552 8.3538 3.075811 28.708301 7.207879
2005-04-06 07:22:12 51°14.461 2°54.544 8.3416 3.054966 28.49611 7.309007
2005-04-06 07:22:16 51°14.461 2°54.537 8.3463 3.07539 28.712736 7.17417
2005-04-06 07:22:21 51°14.461 2°54.53 8.3539 3.07181 28.68391 7.275298
2005-04-06 07:22:27 51°14.462 2°54.522 8.3264 3.077495 28.748662 7.14046
2005-04-06 07:22:31 51°14.462 2°54.516 8.3334 3.079812 28.777313 7.17417
2005-04-06 07:22:37 51°14.462 2°54.508 8.322 3.079812 28.777313 7.17417
2005-04-06 07:22:41 51°14.462 2°54.503 8.3112 3.08497 28.833299 7.14046
2005-04-06 07:22:46 51°14.462 2°54.496 8.315 3.070758 28.693306 7.207879
2005-04-06 07:22:52 51°14.462 2°54.489 8.3002 3.082128 28.814118 7.241589
2005-04-06 07:22:57 51°14.462 2°54.483 8.2956 3.069073 28.682672 7.073042
2005-04-06 07:23:01 51°14.463 2°54.478 8.2975 3.077706 28.77861 7.17417
2005-04-06 07:23:06 51°14.463 2°54.472 8.2967 3.077706 28.77861 7.17417
2005-04-06 07:23:11 51°14.463 2°54.467 8.2882 3.068021 28.683288 7.241589
2005-04-06 07:23:17 51°14.463 2°54.461 8.2909 3.071495 28.726625 6.904494
2005-04-06 07:23:22 51°14.463 2°54.455 8.2848 3.078444 28.803872 7.005623
2005-04-06 07:23:25 51°14.463 2°54.451 8.2873 3.087287 28.90146 6.971913
2005-04-06 07:23:30 51°14.463 2°54.447 8.2774 3.073917 28.769962 6.870785
2005-04-06 07:23:37 51°14.463 2°54.44 8.2791 3.101079 29.053787 6.837076
2005-04-06 07:23:41 51°14.463 2°54.436 8.2732 3.101079 29.053787 6.837076
2005-04-06 07:23:46 51°14.463 2°54.432 8.2723 3.099816 29.045502 6.769657
2005-04-06 07:23:51 51°14.463 2°54.427 8.274 3.097184 29.020983 6.971913
2005-04-06 07:23:56 51°14.464 2°54.423 8.2712 3.105501 29.110575 6.837076
2005-04-06 07:24:02 51°14.464 2°54.417 8.2675 3.100974 29.066414 6.702238
2005-04-06 07:24:07 51°14.464 2°54.414 8.2604 3.100974 29.066414 6.702238
2005-04-06 07:24:11 51°14.464 2°54.41 8.2627 3.109818 29.160127 6.870785
2005-04-06 07:24:17 51°14.464 2°54.405 8.2678 3.103712 29.10096 6.735947
2005-04-06 07:24:21 51°14.465 2°54.402 8.2687 3.090446 28.965567 6.837076
2005-04-06 07:24:27 51°14.465 2°54.398 8.2604 3.105502 29.123638 6.938204
2005-04-06 07:24:32 51°14.465 2°54.394 8.2569 3.087288 28.93832 6.938204
2005-04-06 07:24:37 51°14.465 2°54.39 8.2607 3.087288 28.93832 6.938204
2005-04-06 07:24:41 51°14.466 2°54.387 8.2579 3.096763 29.039926 7.005623
2005-04-06 07:24:47 51°14.466 2°54.383 8.253 3.110134 29.182005 6.837076
2005-04-06 07:24:51 51°14.466 2°54.38 8.253 3.103817 29.114427 6.735947
2005-04-06 07:24:57 51°14.466 2°54.376 8.2514 3.102448 29.101611 6.938204
2005-04-06 07:25:02 51°14.467 2°54.373 8.2471 3.112872 29.211781 7.17417
2005-04-06 07:25:06 51°14.467 2°54.37 8.2501 3.112872 29.211781 7.17417
2005-04-06 07:25:11 51°14.467 2°54.367 8.25 3.104975 29.133318 6.837076
2005-04-06 07:25:16 51°14.467 2°54.363 8.2436 3.111292 29.200227 6.938204
2005-04-06 07:25:21 51°14.467 2°54.36 8.2421 3.101606 29.101129 6.938204
2005-04-06 07:25:27 51°14.467 2°54.357 8.2446 3.095921 29.044233 7.17417
2005-04-06 07:25:31 51°14.468 2°54.355 8.2406 3.100869 29.096924 7.14046
2005-04-06 07:25:37 51°14.468 2°54.351 8.2388 3.101185 29.102952 6.904494
2005-04-06 07:25:41 51°14.468 2°54.349 8.244 3.101185 29.102952 6.904494
2005-04-06 07:25:47 51°14.468 2°54.346 8.2388 3.11045 29.198389 6.803366
2005-04-06 07:25:51 51°14.468 2°54.343 8.235 3.111082 29.209088 6.837076
2005-04-06 07:25:57 51°14.468 2°54.34 8.2406 3.106765 29.166357 6.634819
2005-04-06 07:26:02 51°14.468 2°54.338 8.2349 3.114978 29.25229 6.938204
2005-04-06 07:26:06 51°14.469 2°54.336 8.2368 3.114978 29.25229 6.938204
2005-04-06 07:26:12 51°14.469 2°54.333 8.2318 3.110135 29.203396 6.803366
2005-04-06 07:26:17 51°14.469 2°54.33 8.2295 3.111187 29.215016 6.870785
2005-04-06 07:26:21 51°14.469 2°54.328 8.2303 3.102133 29.122419 7.14046
2005-04-06 07:26:27 51°14.469 2°54.326 8.2258 3.108766 29.19264 7.005623
2005-04-06 07:26:31 51°14.47 2°54.324 8.2301 3.107608 29.181309 6.971913
2005-04-06 07:26:36 51°14.47 2°54.322 8.2292 3.107608 29.181309 6.971913
2005-04-06 07:26:41 51°14.47 2°54.32 8.23 3.107292 29.17941 6.938204
2005-04-06 07:26:46 51°14.47 2°54.317 8.2295 3.105186 29.159622 6.735947
2005-04-06 07:26:51 51°14.47 2°54.315 8.2342 3.106871 29.18056 7.005623
2005-04-06 07:26:57 51°14.471 2°54.313 8.2326 3.110029 29.214047 6.837076
2005-04-06 07:27:02 51°14.471 2°54.311 8.2335 3.108661 29.201216 7.039332
2005-04-06 07:27:07 51°14.471 2°54.309 8.2275 3.109187 29.205992 6.971913
2005-04-06 07:27:11 51°14.471 2°54.308 8.2234 3.109187 29.205992 6.971913
2005-04-06 07:27:17 51°14.471 2°54.305 8.2293 3.112135 29.237298 6.938204
2005-04-06 07:27:21 51°14.472 2°54.304 8.2248 3.110556 29.220205 6.971913
2005-04-06 07:27:26 51°14.472 2°54.302 8.2258 3.11203 29.234821 7.207879
2005-04-06 07:27:31 51°14.472 2°54.3 8.2237 3.103502 29.146272 7.039332
2005-04-06 07:27:37 51°14.472 2°54.298 8.2253 3.106871 29.182631 6.769657
2005-04-06 07:27:41 51°14.472 2°54.297 8.2208 3.106871 29.182631 6.769657
2005-04-06 07:27:46 51°14.472 2°54.295 8.22 3.111082 29.229129 7.073042
2005-04-06 07:27:51 51°14.473 2°54.293 8.219 3.104449 29.159558 6.769657
2005-04-06 07:27:57 51°14.473 2°54.291 8.2213 3.111188 29.232298 7.17417
2005-04-06 07:28:02 51°14.473 2°54.29 8.2206 3.115188 29.273859 6.803366
2005-04-06 07:28:06 51°14.473 2°54.289 8.2176 3.115188 29.273859 6.803366
2005-04-06 07:28:11 51°14.474 2°54.288 8.2171 3.110135 29.221362 7.073042
2005-04-06 07:28:16 51°14.474 2°54.286 8.2195 3.112767 29.250087 7.073042
2005-04-06 07:28:22 51°14.474 2°54.285 8.2167 3.116136 29.287169 6.938204
2005-04-06 07:28:27 51°14.474 2°54.283 8.2155 3.10845 29.208013 6.904494
2005-04-06 07:28:31 51°14.475 2°54.282 8.2186 3.104028 29.161396 7.17417
2005-04-06 07:28:36 51°14.475 2°54.281 8.2164 3.110135 29.226203 7.17417
2005-04-06 07:28:41 51°14.475 2°54.279 8.2172 3.110135 29.226203 7.17417
2005-04-06 07:28:47 51°14.476 2°54.278 8.2176 3.11403 29.268061 7.005623
2005-04-06 07:28:51 51°14.476 2°54.276 8.2146 3.115189 29.280788 6.769657
2005-04-06 07:28:57 51°14.476 2°54.275 8.2165 3.111188 29.239909 7.106751
2005-04-06 07:29:02 51°14.477 2°54.274 8.2155 3.111082 29.238815 7.207879
2005-04-06 07:29:06 51°14.477 2°54.273 8.2127 3.112556 29.254823 7.241589
2005-04-06 07:29:11 51°14.478 2°54.272 8.2143 3.112556 29.254823 7.241589
2005-04-06 07:29:16 51°14.478 2°54.271 8.2145 3.104765 29.173882 6.971913
2005-04-06 07:29:21 51°14.479 2°54.27 8.2141 3.099501 29.11921 7.106751
2005-04-06 07:29:26 51°14.479 2°54.269 8.2123 3.117926 29.312011 6.803366
2005-04-06 07:29:32 51°14.48 2°54.268 8.2126 3.114767 29.279877 7.039332
2005-04-06 07:29:37 51°14.48 2°54.267 8.2107 3.114767 29.279877 7.039332
2005-04-06 07:29:41 51°14.481 2°54.266 8.2102 3.104871 29.176357 7.039332
2005-04-06 07:29:47 51°14.481 2°54.265 8.2097 3.117294 29.306833 6.938204
2005-04-06 07:29:51 51°14.482 2°54.264 8.2096 3.115926 29.292607 6.702238
2005-04-06 07:29:57 51°14.482 2°54.263 8.2097 3.104449 29.174054 7.106751
2005-04-06 07:30:01 51°14.483 2°54.262 8.2069 3.111504 29.248037 7.005623
2005-04-06 07:30:06 51°14.483 2°54.259 8.2079 3.111504 29.248037 7.005623
2005-04-06 07:30:12 51°14.484 2°54.255 8.2069 3.114136 29.276777 6.837076
2005-04-06 07:30:17 51°14.484 2°54.249 8.209 3.105818 29.191728 6.870785
2005-04-06 07:30:21 51°14.485 2°54.243 8.2062 3.103607 29.168758 6.904494
2005-04-06 07:30:27 51°14.485 2°54.233 8.2068 3.101607 29.147977 6.735947
2005-04-06 07:30:31 51°14.485 2°54.225 8.2092 3.109924 29.235087 6.938204
2005-04-06 07:30:37 51°14.485 2°54.213 8.2067 3.080761 28.932908 6.769657
2005-04-06 07:30:41 51°14.485 2°54.205 8.2126 3.080761 28.932908 6.769657
2005-04-06 07:30:47 51°14.485 2°54.192 8.2127 3.066759 28.790364 6.971913
2005-04-06 07:30:51 51°14.484 2°54.184 8.212 3.090973 29.040294 6.735947
2005-04-06 07:30:57 51°14.483 2°54.171 8.2084 3.11024 29.241831 6.803366
2005-04-06 07:31:01 51°14.483 2°54.163 8.2083 3.106029 29.197373 6.735947
2005-04-06 07:31:07 51°14.482 2°54.15 8.2049 3.116242 29.304215 6.870785
2005-04-06 07:31:12 51°14.481 2°54.14 8.2021 3.116242 29.304215 6.870785
2005-04-06 07:31:15 51°14.481 2°54.133 8.2013 3.105713 29.19409 6.702238
2005-04-06 07:31:21 51°14.481 2°54.12 8.2003 3.115399 29.294071 6.803366
2005-04-06 07:31:27 51°14.481 2°54.106 8.2026 3.115294 29.292282 6.735947
2005-04-06 07:31:31 51°14.481 2°54.096 8.1983 3.105713 29.193399 6.870785
2005-04-06 07:31:36 51°14.482 2°54.084 8.2006 3.105713 29.193399 6.870785
2005-04-06 07:31:41 51°14.483 2°54.071 8.1964 3.104765 29.184936 6.803366
2005-04-06 07:31:46 51°14.484 2°54.059 8.1921 3.110556 29.246499 7.207879
2005-04-06 07:31:51 51°14.486 2°54.048 8.1945 3.090973 29.045108 7.275298
2005-04-06 07:31:57 51°14.487 2°54.033 8.1909 3.097606 29.115383 6.971913
2005-04-06 07:32:01 51°14.488 2°54.021 8.1928 3.104134 29.183209 7.005623
2005-04-06 07:32:07 51°14.489 2°54.008 8.1899 3.088236 29.019431 6.870785
2005-04-06 07:32:11 51°14.489 2°53.998 8.1828 3.088236 29.019431 6.870785
2005-04-06 07:32:17 51°14.49 2°53.984 8.1826 3.113925 29.28707 7.309007
2005-04-06 07:32:22 51°14.49 2°53.972 8.1785 3.099922 29.14497 6.971913
2005-04-06 07:32:27 51°14.49 2°53.96 8.1751 3.100449 29.151131 7.073042
2005-04-06 07:32:31 51°14.489 2°53.949 8.1695 3.10287 29.177681 7.410136
2005-04-06 07:32:37 51°14.486 2°53.933 8.1682 3.100975 29.159365 7.275298
2005-04-06 07:32:41 51°14.484 2°53.922 8.1637 3.100975 29.159365 7.275298
2005-04-06 07:32:45 51°14.481 2°53.911 8.1605 3.106029 29.21536 7.17417
2005-04-06 07:32:51 51°14.474 2°53.894 8.1588 3.109609 29.254664 7.14046
2005-04-06 07:32:57 51°14.467 2°53.879 8.1558 3.105503 29.215425 7.005623
2005-04-06 07:33:02 51°14.46 2°53.865 8.1544 3.104345 29.207535 7.275298
2005-04-06 07:33:07 51°14.452 2°53.85 8.1471 3.104345 29.207535 7.275298
2005-04-06 07:33:11 51°14.446 2°53.838 8.147 3.104239 29.210594 7.207879
2005-04-06 07:33:17 51°14.436 2°53.82 8.1533 3.111399 29.287855 7.410136
2005-04-06 07:33:22 51°14.427 2°53.802 8.1543 3.101923 29.193424 7.780939
2005-04-06 07:33:27 51°14.419 2°53.786 8.1432 3.107082 29.249874 7.612392
2005-04-06 07:33:31 51°14.411 2°53.77 8.1466 3.106977 29.251554 7.74723
2005-04-06 07:33:37 51°14.4 2°53.75 8.142 3.106977 29.251554 7.74723
2005-04-06 07:33:41 51°14.392 2°53.733 8.137 3.073708 28.907627 7.679811
2005-04-06 07:33:47 51°14.381 2°53.713 8.1393 3.116032 29.349987 7.612392
2005-04-06 07:33:51 51°14.373 2°53.697 8.133 3.084973 29.026791 7.814648
2005-04-06 07:33:57 51°14.361 2°53.674 8.1312 3.092869 29.109604 7.679811
2005-04-06 07:34:01 51°14.352 2°53.656 8.1355 3.104661 29.234383 7.949486
2005-04-06 07:34:07 51°14.341 2°53.634 8.1266 3.078235 28.961547 7.780939
2005-04-06 07:34:11 51°14.333 2°53.617 8.1242 3.078235 28.961547 7.780939
2005-04-06 07:34:17 51°14.321 2°53.593 8.1212 3.105082 29.243623 7.949486
2005-04-06 07:34:21 51°14.313 2°53.577 8.1176 3.09129 29.102152 7.915777
2005-04-06 07:34:26 51°14.301 2°53.554 8.1223 3.108135 29.279582 7.848358
2005-04-06 07:34:31 51°14.292 2°53.535 8.1244 3.087394 29.065762 7.646101
2005-04-06 07:34:36 51°14.28 2°53.513 8.1244 3.087394 29.065762 7.646101
2005-04-06 07:34:42 51°14.27 2°53.489 8.1297 3.104345 29.243584 7.578683
2005-04-06 07:34:46 51°14.262 2°53.472 8.1286 3.106872 29.273373 7.983195
2005-04-06 07:34:51 51°14.251 2°53.448 8.1205 3.112768 29.338972 7.780939
2005-04-06 07:34:55 51°14.244 2°53.43 8.1151 3.113084 29.34505 7.814648
2005-04-06 07:35:02 51°14.231 2°53.399 8.1122 3.106767 29.279922 7.679811
2005-04-06 07:35:05 51°14.226 2°53.386 8.1076 3.086973 29.071731 7.679811
2005-04-06 07:35:12 51°14.214 2°53.356 8.1112 3.086973 29.071731 7.679811
2005-04-06 07:35:16 51°14.206 2°53.336 8.1016 3.114347 29.351944 8.016905
2005-04-06 07:35:21 51°14.198 2°53.316 8.1024 3.111715 29.32452 7.71352
2005-04-06 07:35:27 51°14.187 2°53.288 8.1031 3.112979 29.339773 7.544973
2005-04-06 07:35:31 51°14.179 2°53.267 8.1009 3.09508 29.158892 7.646101
2005-04-06 07:35:37 51°14.169 2°53.243 8.1008 3.09508 29.158892 7.646101
2005-04-06 07:35:41 51°14.161 2°53.224 8.1006 3.107293 29.28958 7.578683
2005-04-06 07:35:47 51°14.151 2°53.197 8.0981 3.090237 29.113998 7.410136
2005-04-06 07:35:52 51°14.142 2°53.174 8.0998 3.112873 29.352615 7.612392
2005-04-06 07:35:57 51°14.133 2°53.152 8.1067 3.108241 29.306415 7.74723
2005-04-06 07:36:02 51°14.123 2°53.129 8.0927 3.1134 29.362288 7.71352
2005-04-06 07:36:07 51°14.115 2°53.106 8.1049 3.108557 29.313886 7.814648
2005-04-06 07:36:11 51°14.106 2°53.085 8.0932 3.108557 29.313886 7.814648
2005-04-06 07:36:16 51°14.097 2°53.063 8.0952 3.112031 29.350109 7.544973
2005-04-06 07:36:21 51°14.088 2°53.04 8.095 3.114242 29.37456 7.241589
2005-04-06 07:36:27 51°14.078 2°53.015 8.0936 3.110978 29.341921 7.275298
2005-04-06 07:36:31 51°14.071 2°52.997 8.091 3.107504 29.305696 7.74723
2005-04-06 07:36:37 51°14.06 2°52.97 8.0921 3.107504 29.305696 7.74723
2005-04-06 07:36:41 51°14.052 2°52.949 8.0948 3.087816 29.100536 7.477554
2005-04-06 07:36:46 51°14.043 2°52.926 8.1024 3.120454 29.441447 7.814648
2005-04-06 07:36:51 51°14.035 2°52.906 8.107 3.116559 29.40151 7.679811
2005-04-06 07:36:57 51°14.024 2°52.879 8.0939 3.116559 29.40151 7.679811
2005-04-06 07:37:02 51°14.015 2°52.856 8.1039 3.115506 29.391227 7.410136
2005-04-06 07:37:06 51°14.007 2°52.836 8.1005 3.115506 29.391227 7.410136
2005-04-06 07:37:12 51°13.996 2°52.808 8.0978 3.119085 29.429966 7.443845
2005-04-06 07:37:15 51°13.991 2°52.797 8.1073 3.120349 29.443847 7.949486
2005-04-06 07:37:21 51°13.98 2°52.767 8.0946 3.110031 29.334132 7.544973
2005-04-06 07:37:26 51°13.971 2°52.743 8.0926 3.095186 29.176618 7.71352
2005-04-06 07:37:32 51°13.962 2°52.717 8.102 3.111189 29.344814 7.679811
2005-04-06 07:37:36 51°13.954 2°52.696 8.0917 3.12435 29.479987 7.612392
2005-04-06 07:37:41 51°13.945 2°52.673 8.1048 3.12435 29.479987 7.612392
2005-04-06 07:37:46 51°13.937 2°52.652 8.0986 3.120454 29.440747 7.511264
2005-04-06 07:37:50 51°13.929 2°52.631 8.0993 3.118664 29.420678 7.780939
2005-04-06 07:37:55 51°13.922 2°52.61 8.0998 3.122665 29.465914 7.646101
2005-04-06 07:38:02 51°13.91 2°52.577 8.1004 3.113084 29.36667 7.814648
2005-04-06 07:38:07 51°13.901 2°52.554 8.1013 3.092238 29.149368 7.71352
2005-04-06 07:38:11 51°13.894 2°52.535 8.0957 3.092238 29.149368 7.71352
2005-04-06 07:38:14 51°13.888 2°52.519 8.0982 3.099713 29.225875 7.780939
2005-04-06 07:38:22 51°13.874 2°52.481 8.1046 3.121296 29.450933 7.949486
2005-04-06 07:38:26 51°13.868 2°52.462 8.0986 3.110241 29.334236 7.882067
2005-04-06 07:38:32 51°13.858 2°52.437 8.1019 3.121507 29.45313 8.050614
2005-04-06 07:38:37 51°13.849 2°52.413 8.1023 3.121507 29.45313 8.050614
2005-04-06 07:38:42 51°13.841 2°52.39 8.0962 3.105504 29.284842 7.949486
2005-04-06 07:38:47 51°13.832 2°52.366 8.1016 3.113084 29.364576 7.646101
2005-04-06 07:38:51 51°13.825 2°52.347 8.1008 3.102556 29.254113 7.71352
2005-04-06 07:38:57 51°13.815 2°52.319 8.1049 3.118243 29.416984 7.74723
2005-04-06 07:39:01 51°13.808 2°52.298 8.1039 3.124034 29.479494 7.915777
2005-04-06 07:39:06 51°13.8 2°52.274 8.1066 3.124034 29.479494 7.915777
2005-04-06 07:39:11 51°13.791 2°52.249 8.1075 3.116348 29.398615 7.679811
2005-04-06 07:39:17 51°13.781 2°52.223 8.107 3.122876 29.46671 7.949486
2005-04-06 07:39:22 51°13.772 2°52.198 8.1071 3.102766 29.257003 7.848358
2005-04-06 07:39:26 51°13.764 2°52.178 8.1165 3.100555 29.232569 7.780939
2005-04-06 07:39:31 51°13.754 2°52.15 8.1168 3.103398 29.261502 7.612392
2005-04-06 07:39:37 51°13.743 2°52.123 8.1173 3.109083 29.319374 7.780939
2005-04-06 07:39:41 51°13.735 2°52.1 8.1138 3.109083 29.319374 7.780939
2005-04-06 07:39:46 51°13.725 2°52.074 8.1174 3.127824 29.514136 7.882067
2005-04-06 07:39:51 51°13.717 2°52.05 8.1196 3.134879 29.587753 7.646101
2005-04-06 07:39:57 51°13.704 2°52.017 8.1185 3.109925 29.325368 7.983195
2005-04-06 07:40:01 51°13.697 2°51.996 8.1221 3.108978 29.312704 7.983195
2005-04-06 07:40:07 51°13.686 2°51.967 8.1278 3.108873 29.310214 8.320289
2005-04-06 07:40:11 51°13.678 2°51.946 8.1267 3.108873 29.310214 8.320289
2005-04-06 07:40:16 51°13.668 2°51.917 8.1258 3.101608 29.233817 7.915777
2005-04-06 07:40:22 51°13.657 2°51.888 8.1296 3.111715 29.337754 8.118033
2005-04-06 07:40:27 51°13.647 2°51.862 8.1262 3.129298 29.520398 8.050614
2005-04-06 07:40:31 51°13.639 2°51.841 8.1297 3.13551 29.582397 8.353999
2005-04-06 07:40:37 51°13.628 2°51.81 8.1388 3.13551 29.582397 8.353999
2005-04-06 07:40:41 51°13.619 2°51.786 8.1391 3.130351 29.527173 8.050614
2005-04-06 07:40:46 51°13.61 2°51.762 8.1416 3.125824 29.478555 8.118033
2005-04-06 07:40:51 51°13.599 2°51.732 8.1444 3.124244 29.461387 8.185452
2005-04-06 07:40:57 51°13.588 2°51.704 8.1448 3.137195 29.595054 7.882067
2005-04-06 07:41:01 51°13.58 2°51.68 8.1428 3.10803 29.290999 7.915777
2005-04-06 07:41:07 51°13.569 2°51.651 8.1447 3.12993 29.516471 8.084324
2005-04-06 07:41:11 51°13.561 2°51.63 8.1463 3.12993 29.516471 8.084324
2005-04-06 07:41:17 51°13.55 2°51.598 8.1476 3.136037 29.575948 7.983195
2005-04-06 07:41:21 51°13.541 2°51.574 8.1521 3.135615 29.568747 8.421418
2005-04-06 07:41:27 51°13.53 2°51.545 8.1486 3.13372 29.547582 8.185452
2005-04-06 07:41:31 51°13.523 2°51.524 8.1532 3.12993 29.505962 8.353999
2005-04-06 07:41:37 51°13.51 2°51.49 8.1569 3.137826 29.58689 8.320289
2005-04-06 07:41:41 51°13.502 2°51.468 8.1548 3.137826 29.58689 8.320289
2005-04-06 07:41:46 51°13.493 2°51.442 8.1551 3.124771 29.45079 8.118033
2005-04-06 07:41:51 51°13.484 2°51.418 8.158 3.114663 29.343392 8.28658
2005-04-06 07:41:57 51°13.473 2°51.386 8.1587 3.138563 29.591064 8.28658
2005-04-06 07:42:01 51°13.465 2°51.365 8.1609 3.12835 29.483901 8.28658
2005-04-06 07:42:07 51°13.453 2°51.333 8.1611 3.147092 29.677894 8.084324
2005-04-06 07:42:11 51°13.444 2°51.309 8.1657 3.147092 29.677894 8.084324
2005-04-06 07:42:17 51°13.434 2°51.281 8.1641 3.125086 29.446395 8.353999
2005-04-06 07:42:21 51°13.425 2°51.257 8.1667 3.102239 29.207792 8.252871
2005-04-06 07:42:27 51°13.414 2°51.229 8.1704 3.125402 29.448288 7.915777
2005-04-06 07:42:31 51°13.407 2°51.207 8.171 3.135089 29.548528 8.084324
2005-04-06 07:42:35 51°13.399 2°51.186 8.1728 3.135089 29.548528 8.084324
2005-04-06 07:42:41 51°13.388 2°51.155 8.1731 3.112978 29.316108 8.252871
2005-04-06 07:42:46 51°13.377 2°51.126 8.1759 3.14804 29.68003 8.421418
2005-04-06 07:42:51 51°13.368 2°51.103 8.1779 3.136142 29.553893 8.28658
2005-04-06 07:42:57 51°13.357 2°51.071 8.1787 3.140669 29.599676 8.28658
2005-04-06 07:43:02 51°13.347 2°51.045 8.1829 3.132878 29.51778 8.387708
2005-04-06 07:43:06 51°13.339 2°51.021 8.1837 3.139616 29.585193 8.28658
2005-04-06 07:43:11 51°13.329 2°50.995 8.1855 3.139616 29.585193 8.28658
2005-04-06 07:43:17 51°13.319 2°50.966 8.1861 3.13751 29.561145 8.353999
2005-04-06 07:43:21 51°13.31 2°50.943 8.1862 3.114768 29.322223 8.522546
2005-04-06 07:43:27 51°13.3 2°50.914 8.1899 3.147408 29.660777 8.219161
2005-04-06 07:43:32 51°13.29 2°50.888 8.1901 3.112557 29.29574 8.353999
2005-04-06 07:43:37 51°13.279 2°50.86 8.1905 3.139405 29.572478 8.387708
2005-04-06 07:43:42 51°13.271 2°50.836 8.1945 3.139405 29.572478 8.387708
2005-04-06 07:43:46 51°13.262 2°50.813 8.1922 3.138458 29.562607 8.421418
2005-04-06 07:43:51 51°13.253 2°50.79 8.1953 3.145933 29.638386 8.589965
2005-04-06 07:43:56 51°13.243 2°50.761 8.197 3.123507 29.404129 8.421418
2005-04-06 07:44:02 51°13.231 2°50.73 8.1957 3.140037 29.574151 8.522546
2005-04-06 07:44:07 51°13.223 2°50.706 8.1987 3.147934 29.655717 8.320289
2005-04-06 07:44:12 51°13.213 2°50.68 8.1988 3.147934 29.655717 8.320289
2005-04-06 07:44:16 51°13.205 2°50.657 8.2026 3.139932 29.570952 8.522546
2005-04-06 07:44:21 51°13.195 2°50.631 8.2041 3.113925 29.299563 8.758512
2005-04-06 07:44:27 51°13.184 2°50.602 8.2061 3.122348 29.385805 8.556255
2005-04-06 07:44:31 51°13.176 2°50.578 8.2036 3.135825 29.525389 8.353999
2005-04-06 07:44:37 51°13.165 2°50.55 8.2061 3.150145 29.67313 8.320289
2005-04-06 07:44:41 51°13.158 2°50.529 8.2053 3.150145 29.67313 8.320289
2005-04-06 07:44:45 51°13.15 2°50.508 8.2067 3.130245 29.465897 8.455127
2005-04-06 07:44:51 51°13.139 2°50.477 8.2079 3.155726 29.728461 8.252871
2005-04-06 07:44:57 51°13.127 2°50.446 8.2084 3.137615 29.538427 8.28658
2005-04-06 07:45:02 51°13.117 2°50.42 8.2114 3.154673 29.713969 8.758512
2005-04-06 07:45:06 51°13.109 2°50.396 8.2093 3.154673 29.713969 8.758512
2005-04-06 07:45:11 51°13.099 2°50.369 8.2148 3.154778 29.714362 8.657383
2005-04-06 07:45:17 51°13.089 2°50.341 8.2101 3.134983 29.507529 8.927059
2005-04-06 07:45:22 51°13.079 2°50.315 8.2093 3.147407 29.636885 8.724802
2005-04-06 07:45:27 51°13.07 2°50.288 8.2108 3.14825 29.644955 9.095606
2005-04-06 07:45:30 51°13.064 2°50.27 8.2091 3.163412 29.801509 8.724802
2005-04-06 07:45:36 51°13.052 2°50.238 8.2101 3.163412 29.801509 8.724802
2005-04-06 07:45:41 51°13.043 2°50.212 8.2119 3.157094 29.734974 8.82593
2005-04-06 07:45:47 51°13.032 2°50.183 8.2096 3.164886 29.814753 8.927059
2005-04-06 07:45:52 51°13.022 2°50.157 8.2079 3.163201 29.797196 8.455127
2005-04-06 07:45:57 51°13.013 2°50.132 8.2074 3.165728 29.824238 8.85964
2005-04-06 07:46:02 51°13.002 2°50.105 8.2075 3.159095 29.755818 8.85964
2005-04-06 07:46:06 51°12.994 2°50.085 8.2102 3.159095 29.755818 8.85964
2005-04-06 07:46:12 51°12.982 2°50.054 8.2106 3.163307 29.798999 8.657383
2005-04-06 07:46:17 51°12.972 2°50.029 8.209 3.155515 29.717816 8.927059
2005-04-06 07:46:21 51°12.964 2°50.009 8.211 3.163307 29.799705 9.061896
2005-04-06 07:46:27 51°12.952 2°49.977 8.2129 3.16436 29.811385 8.589965
2005-04-06 07:46:32 51°12.942 2°49.952 8.2126 3.154988 29.71374 8.589965
2005-04-06 07:46:36 51°12.933 2°49.929 8.214 3.1572 29.736071 8.82593
2005-04-06 07:46:42 51°12.921 2°49.898 8.2168 3.1572 29.736071 8.82593
2005-04-06 07:46:45 51°12.915 2°49.882 8.2186 3.162148 29.787635 8.82593
2005-04-06 07:46:51 51°12.904 2°49.854 8.2194 3.163096 29.797511 8.85964
2005-04-06 07:46:55 51°12.896 2°49.834 8.2172 3.156041 29.721189 8.758512
2005-04-06 07:47:01 51°12.883 2°49.803 8.2176 3.16257 29.789201 8.724802
2005-04-06 07:47:07 51°12.871 2°49.772 8.2206 3.159305 29.755192 8.893349
2005-04-06 07:47:11 51°12.863 2°49.752 8.2187 3.159305 29.755192 8.893349
2005-04-06 07:47:17 51°12.852 2°49.721 8.2178 3.155304 29.712103 8.556255
2005-04-06 07:47:21 51°12.842 2°49.698 8.2187 3.158042 29.739211 8.724802
2005-04-06 07:47:26 51°12.832 2°49.672 8.2245 3.160885 29.767417 9.095606
2005-04-06 07:47:31 51°12.822 2°49.646 8.2225 3.151514 29.670517 8.994477
2005-04-06 07:47:37 51°12.811 2°49.618 8.2288 3.151514 29.670517 8.994477
2005-04-06 07:47:41 51°12.802 2°49.595 8.2264 3.158884 29.745168 8.927059
2005-04-06 07:47:46 51°12.792 2°49.569 8.2254 3.159937 29.757545 8.85964
2005-04-06 07:47:51 51°12.782 2°49.543 8.2223 3.157515 29.732319 8.893349
2005-04-06 07:47:57 51°12.771 2°49.515 8.2248 3.157199 29.727621 8.960768
2005-04-06 07:48:01 51°12.762 2°49.492 8.2249 3.161306 29.76828 9.028187
2005-04-06 07:48:06 51°12.752 2°49.467 8.2269 3.157094 29.722301 9.061896
2005-04-06 07:48:12 51°12.741 2°49.438 8.2275 3.157094 29.722301 9.061896
2005-04-06 07:48:16 51°12.732 2°49.415 8.2301 3.158884 29.740238 8.994477
2005-04-06 07:48:21 51°12.722 2°49.389 8.2294 3.155725 29.70664 9.028187
2005-04-06 07:48:27 51°12.711 2°49.361 8.2348 3.162885 29.781911 9.196734
2005-04-06 07:48:32 51°12.701 2°49.335 8.2325 3.163938 29.79288 9.264153
2005-04-06 07:48:37 51°12.691 2°49.31 8.2359 3.158884 29.740238 8.893349
2005-04-06 07:48:41 51°12.682 2°49.286 8.2352 3.158884 29.740238 8.893349
2005-04-06 07:48:45 51°12.674 2°49.266 8.2342 3.165307 29.806433 9.331571
2005-04-06 07:48:50 51°12.664 2°49.24 8.2377 3.163412 29.785985 9.163024
2005-04-06 07:48:57 51°12.652 2°49.207 8.239 3.163306 29.782773 9.163024
2005-04-06 07:49:01 51°12.643 2°49.184 8.2381 3.163622 29.784652 9.028187
2005-04-06 07:49:07 51°12.632 2°49.155 8.242 3.163622 29.784652 9.028187
2005-04-06 07:49:11 51°12.623 2°49.132 8.2424 3.164149 29.78943 9.028187
2005-04-06 07:49:17 51°12.612 2°49.104 8.243 3.167202 29.819117 9.163024
2005-04-06 07:49:22 51°12.602 2°49.078 8.2417 3.157621 29.720043 9.331571
2005-04-06 07:49:25 51°12.595 2°49.06 8.2439 3.164675 29.792093 9.39899
2005-04-06 07:49:31 51°12.583 2°49.029 8.2447 3.164465 29.7899 9.230443
2005-04-06 07:49:36 51°12.573 2°49.004 8.2447 3.164465 29.7899 9.230443
2005-04-06 07:49:41 51°12.564 2°48.981 8.2469 3.160253 29.74393 9.668665
2005-04-06 07:49:45 51°12.556 2°48.957 8.2466 3.164886 29.790055 9.4327
2005-04-06 07:49:51 51°12.543 2°48.926 8.249 3.161622 29.75466 9.736084
2005-04-06 07:49:57 51°12.533 2°48.899 8.2491 3.164991 29.791151 9.331571
2005-04-06 07:50:01 51°12.525 2°48.878 8.2486 3.167308 29.813863 9.466409
2005-04-06 07:50:07 51°12.513 2°48.847 8.2511 3.166886 29.808066 9.500118
2005-04-06 07:50:11 51°12.505 2°48.827 8.2521 3.166886 29.808066 9.500118
2005-04-06 07:50:17 51°12.493 2°48.796 8.2524 3.153303 29.665973 9.702375
2005-04-06 07:50:22 51°12.483 2°48.77 8.2498 3.166255 29.799372 9.97205
2005-04-06 07:50:27 51°12.473 2°48.745 8.2526 3.156041 29.691652 9.97205
2005-04-06 07:50:31 51°12.465 2°48.724 8.2552 3.158779 29.719439 9.736084
2005-04-06 07:50:37 51°12.453 2°48.694 8.2515 3.169519 29.831948 10.039469
2005-04-06 07:50:41 51°12.444 2°48.671 8.2531 3.169519 29.831948 10.039469
2005-04-06 07:50:46 51°12.434 2°48.645 8.2556 3.16815 29.816284 9.601247
2005-04-06 07:50:51 51°12.425 2°48.622 8.2612 3.171098 29.846276 9.904631
2005-04-06 07:50:57 51°12.412 2°48.589 8.2615 3.162885 29.760068 9.870922
2005-04-06 07:51:01 51°12.404 2°48.568 8.2603 3.165307 29.784572 10.073178
2005-04-06 07:51:06 51°12.394 2°48.543 8.2607 3.165307 29.784572 10.073178
2005-04-06 07:51:11 51°12.385 2°48.52 8.2618 3.158357 29.711541 10.241725
2005-04-06 07:51:16 51°12.375 2°48.492 8.2583 3.170993 29.843768 10.275435
2005-04-06 07:51:21 51°12.364 2°48.466 8.2615 3.172151 29.854416 10.275435
2005-04-06 07:51:27 51°12.354 2°48.438 8.2631 3.173099 29.861457 10.241725
2005-04-06 07:51:31 51°12.345 2°48.418 8.266 3.170045 29.82755 10.443982
2005-04-06 07:51:37 51°12.333 2°48.387 8.2664 3.170045 29.82755 10.443982
2005-04-06 07:51:41 51°12.324 2°48.364 8.2657 3.170887 29.836319 10.140597
2005-04-06 07:51:46 51°12.315 2°48.339 8.2691 3.16299 29.754125 10.342853
2005-04-06 07:51:51 51°12.306 2°48.316 8.2685 3.166149 29.786999 10.679947
2005-04-06 07:51:57 51°12.294 2°48.285 8.2655 3.16815 29.807116 10.747366
2005-04-06 07:52:02 51°12.284 2°48.26 8.2665 3.165307 29.776823 10.376563
2005-04-06 07:52:07 51°12.274 2°48.234 8.2673 3.152671 29.643266 10.477691
2005-04-06 07:52:11 51°12.266 2°48.214 8.2669 3.152671 29.643266 10.477691
2005-04-06 07:52:15 51°12.258 2°48.193 8.2706 3.146354 29.576175 10.443982
2005-04-06 07:52:22 51°12.244 2°48.157 8.2675 3.161832 29.737149 10.814785
2005-04-06 07:52:27 51°12.234 2°48.132 8.2679 3.153303 29.648434 10.882204
2005-04-06 07:52:30 51°12.227 2°48.114 8.2668 3.167939 29.799286 10.747366
2005-04-06 07:52:37 51°12.214 2°48.081 8.2679 3.167939 29.799286 10.747366
2005-04-06 07:52:41 51°12.205 2°48.058 8.2706 3.161305 29.730969 10.477691
2005-04-06 07:52:47 51°12.194 2°48.03 8.2734 3.176995 29.89354 10.848494
2005-04-06 07:52:52 51°12.183 2°48.002 8.269 3.177521 29.8969 10.814785
2005-04-06 07:52:57 51°12.174 2°47.979 8.2699 3.176573 29.888448 11.151879
2005-04-06 07:53:01 51°12.165 2°47.956 8.2689 3.16836 29.802964 11.219298
2005-04-06 07:53:06 51°12.155 2°47.931 8.271 3.16836 29.802964 11.219298
2005-04-06 07:53:11 51°12.146 2°47.908 8.2744 3.155935 29.673707 10.747366
2005-04-06 07:53:17 51°12.135 2°47.877 8.2734 3.175099 29.871689 10.949623
2005-04-06 07:53:21 51°12.126 2°47.854 8.2703 3.174678 29.867305 10.747366
2005-04-06 07:53:27 51°12.115 2°47.827 8.2779 3.176257 29.88304 10.848494
2005-04-06 07:53:31 51°12.105 2°47.803 8.2725 3.173099 29.850866 11.151879
2005-04-06 07:53:36 51°12.096 2°47.779 8.2725 3.165412 29.770878 10.747366
2005-04-06 07:53:41 51°12.086 2°47.753 8.2721 3.165412 29.770878 10.747366
2005-04-06 07:53:47 51°12.075 2°47.726 8.2733 3.170677 29.824251 10.915913
2005-04-06 07:53:51 51°12.067 2°47.705 8.2729 3.173941 29.856104 10.915913
2005-04-06 07:53:56 51°12.056 2°47.678 8.2721 3.172993 29.846947 10.949623
2005-04-06 07:54:01 51°12.046 2°47.652 8.2728 3.177205 29.890077 10.781076
2005-04-06 07:54:06 51°12.036 2°47.627 8.2734 3.182259 29.9434 10.983332
2005-04-06 07:54:11 51°12.027 2°47.604 8.2725 3.182259 29.9434 10.983332
2005-04-06 07:54:17 51°12.015 2°47.574 8.2765 3.180891 29.929856 10.814785
2005-04-06 07:54:22 51°12.005 2°47.549 8.2752 3.18068 29.926956 11.11817
2005-04-06 07:54:26 51°11.997 2°47.529 8.2732 3.181522 29.935726 11.11817
2005-04-06 07:54:31 51°11.986 2°47.501 8.2755 3.172572 29.843269 11.08446
2005-04-06 07:54:37 51°11.975 2°47.473 8.2799 3.172572 29.843269 11.08446
2005-04-06 07:54:41 51°11.967 2°47.453 8.2776 3.184681 29.968617 10.915913
2005-04-06 07:54:47 51°11.955 2°47.423 8.2798 3.182786 29.947466 11.017042
2005-04-06 07:54:50 51°11.949 2°47.405 8.2848 3.182575 29.945273 11.151879
2005-04-06 07:54:57 51°11.936 2°47.373 8.2814 3.183207 29.951143 11.11817
2005-04-06 07:55:02 51°11.926 2°47.347 8.2815 3.18605 29.981453 11.185589
2005-04-06 07:55:07 51°11.916 2°47.322 8.2789 3.18605 29.981453 11.185589
2005-04-06 07:55:12 51°11.906 2°47.297 8.2847 3.187103 29.991 11.050751
2005-04-06 07:55:17 51°11.896 2°47.272 8.2865 3.180048 29.916135 11.354136
2005-04-06 07:55:21 51°11.887 2°47.25 8.2894 3.187419 29.992871 11.185589
2005-04-06 07:55:26 51°11.878 2°47.224 8.2886 3.188577 30.002804 11.590101
2005-04-06 07:55:31 51°11.869 2°47.202 8.293 3.190262 30.021057 11.11817
2005-04-06 07:55:37 51°11.857 2°47.172 8.2943 3.184787 29.962629 11.253007
2005-04-06 07:55:42 51°11.847 2°47.147 8.2962 3.184787 29.962629 11.253007
2005-04-06 07:55:46 51°11.838 2°47.125 8.2993 3.192684 30.044147 11.286717
2005-04-06 07:55:51 51°11.829 2°47.103 8.3006 3.185208 29.964889 11.522683
2005-04-06 07:55:56 51°11.818 2°47.076 8.3019 3.193737 30.051561 11.421554
2005-04-06 07:56:01 51°11.808 2°47.051 8.3029 3.184892 29.95806 11.387845
2005-04-06 07:56:07 51°11.797 2°47.023 8.3047 3.185418 29.961416 11.286717
2005-04-06 07:56:12 51°11.787 2°46.995 8.304 3.185418 29.961416 11.286717
2005-04-06 07:56:17 51°11.779 2°46.972 8.3031 3.190367 30.010802 11.826067
2005-04-06 07:56:21 51°11.771 2°46.948 8.3058 3.192368 30.029501 11.792358
2005-04-06 07:56:27 51°11.762 2°46.92 8.3015 3.187524 29.97696 11.623811
2005-04-06 07:56:31 51°11.754 2°46.895 8.2976 3.187103 29.971868 11.960905
2005-04-06 07:56:36 51°11.747 2°46.872 8.2994 3.187103 29.971868 11.960905
2005-04-06 07:56:41 51°11.738 2°46.843 8.2935 3.186155 29.959884 11.960905
2005-04-06 07:56:47 51°11.729 2°46.814 8.2939 3.180574 29.900411 12.062033
2005-04-06 07:56:51 51°11.722 2°46.79 8.2933 3.191525 30.01364 12.264289
2005-04-06 07:56:57 51°11.713 2°46.761 8.293 3.190367 30.000878 11.826067
2005-04-06 07:57:02 51°11.705 2°46.735 8.2944 3.185102 29.946805 11.994614
2005-04-06 07:57:07 51°11.697 2°46.709 8.2959 3.198581 30.090627 11.488973
2005-04-06 07:57:12 51°11.689 2°46.682 8.2971 3.198581 30.090627 11.488973
2005-04-06 07:57:16 51°11.682 2°46.658 8.2972 3.195316 30.058064 11.893486
2005-04-06 07:57:21 51°11.674 2°46.632 8.2952 3.182365 29.9261 11.387845
2005-04-06 07:57:27 51°11.665 2°46.602 8.2964 3.202793 30.138756 11.69123
2005-04-06 07:57:31 51°11.658 2°46.578 8.2949 3.196791 30.076253 11.421554
2005-04-06 07:57:37 51°11.65 2°46.55 8.2985 3.202161 30.131464 11.65752
2005-04-06 07:57:41 51°11.643 2°46.528 8.2971 3.202161 30.131464 11.65752
2005-04-06 07:57:45 51°11.636 2°46.505 8.299 3.201108 30.120498 11.320426
2005-04-06 07:57:51 51°11.628 2°46.476 8.2995 3.204162 30.151589 11.185589
2005-04-06 07:57:57 51°11.618 2°46.444 8.3027 3.209111 30.203855 11.387845
2005-04-06 07:58:01 51°11.611 2°46.42 8.3014 3.207637 30.188497 11.185589
2005-04-06 07:58:07 51°11.602 2°46.391 8.3012 3.206057 30.171331 11.421554
2005-04-06 07:58:11 51°11.596 2°46.37 8.2999 3.206057 30.171331 11.421554
2005-04-06 07:58:16 51°11.587 2°46.341 8.3021 3.191841 30.022601 11.522683
2005-04-06 07:58:21 51°11.579 2°46.314 8.2993 3.209743 30.209723 11.590101
2005-04-06 07:58:26 51°11.571 2°46.288 8.3022 3.205847 30.167712 11.08446
2005-04-06 07:58:30 51°11.564 2°46.267 8.3004 3.205636 30.164093 11.050751
2005-04-06 07:58:37 51°11.554 2°46.233 8.3051 3.205636 30.164093 11.050751
2005-04-06 07:58:41 51°11.546 2°46.21 8.3004 3.196685 30.070183 11.455264
2005-04-06 07:58:47 51°11.537 2°46.181 8.3008 3.205741 30.165189 11.253007
2005-04-06 07:58:52 51°11.529 2°46.155 8.3003 3.213323 30.243451 11.253007
2005-04-06 07:58:57 51°11.521 2°46.129 8.2997 3.214376 30.254422 10.915913
2005-04-06 07:59:01 51°11.513 2°46.105 8.3055 3.196791 30.07128 10.814785
2005-04-06 07:59:06 51°11.505 2°46.079 8.3003 3.217219 30.283331 11.017042
2005-04-06 07:59:11 51°11.498 2°46.056 8.3052 3.217219 30.283331 11.017042
2005-04-06 07:59:16 51°11.489 2°46.027 8.3011 3.21406 30.250416 11.354136
2005-04-06 07:59:21 51°11.481 2°46.001 8.3021 3.213007 30.238731 11.253007
2005-04-06 07:59:25 51°11.475 2°45.98 8.2987 3.213534 30.245645 10.848494
2005-04-06 07:59:31 51°11.465 2°45.948 8.3025 3.215745 30.268685 11.219298
2005-04-06 07:59:37 51°11.456 2°45.92 8.3032 3.223011 30.343688 11.320426
2005-04-06 07:59:41 51°11.449 2°45.896 8.3027 3.223011 30.343688 11.320426
2005-04-06 07:59:46 51°11.441 2°45.87 8.3055 3.217535 30.285907 11.219298
2005-04-06 07:59:52 51°11.432 2°45.839 8.3007 3.218904 30.300888 11.522683
2005-04-06 07:59:57 51°11.424 2°45.816 8.3022 3.217535 30.287338 11.253007
2005-04-06 08:00:01 51°11.417 2°45.792 8.3036 3.21227 30.233195 11.253007
2005-04-06 08:00:07 51°11.408 2°45.764 8.3024 3.224275 30.356142 11.387845
2005-04-06 08:00:11 51°11.401 2°45.74 8.3028 3.224275 30.356142 11.387845
2005-04-06 08:00:17 51°11.392 2°45.712 8.3038 3.221116 30.323217 11.08446
2005-04-06 08:00:21 51°11.385 2°45.689 8.302 3.2208 30.319208 11.590101
2005-04-06 08:00:27 51°11.376 2°45.661 8.3061 3.22617 30.375899 10.983332
2005-04-06 08:00:31 51°11.368 2°45.637 8.3049 3.227329 30.387974 11.792358
2005-04-06 08:00:37 51°11.359 2°45.609 8.3072 3.230172 30.416178 11.724939
2005-04-06 08:00:41 51°11.352 2°45.586 8.3089 3.230172 30.416178 11.724939
2005-04-06 08:00:47 51°11.343 2°45.557 8.305 3.227855 30.392027 11.590101
2005-04-06 08:00:51 51°11.337 2°45.536 8.3089 3.230172 30.416897 11.354136
2005-04-06 08:00:57 51°11.328 2°45.505 8.311 3.230067 30.416517 11.994614
2005-04-06 08:01:01 51°11.32 2°45.482 8.3087 3.223853 30.351034 11.590101
2005-04-06 08:01:07 51°11.312 2°45.453 8.3109 3.228698 30.400809 11.69123
2005-04-06 08:01:11 51°11.305 2°45.432 8.3106 3.228698 30.400809 11.69123
2005-04-06 08:01:17 51°11.296 2°45.401 8.3119 3.22796 30.390971 11.455264
2005-04-06 08:01:21 51°11.289 2°45.378 8.3135 3.223959 30.349981 12.163161
2005-04-06 08:01:27 51°11.28 2°45.349 8.3141 3.236596 30.480276 12.028324
2005-04-06 08:01:31 51°11.274 2°45.328 8.3148 3.229329 30.403086 11.893486
2005-04-06 08:01:36 51°11.265 2°45.3 8.3191 3.221747 30.32407 11.927195
2005-04-06 08:01:41 51°11.257 2°45.274 8.3184 3.221747 30.32407 11.927195
2005-04-06 08:01:45 51°11.251 2°45.254 8.3194 3.236069 30.472627 12.095742
2005-04-06 08:01:50 51°11.243 2°45.228 8.3177 3.230909 30.418114 11.792358
2005-04-06 08:01:57 51°11.232 2°45.194 8.317 3.225538 30.360706 12.163161
2005-04-06 08:02:01 51°11.225 2°45.171 8.3182 3.235753 30.466454 11.826067
2005-04-06 08:02:06 51°11.217 2°45.145 8.3205 3.235753 30.466454 11.826067
2005-04-06 08:02:12 51°11.209 2°45.116 8.3207 3.234384 30.451463 12.095742
2005-04-06 08:02:17 51°11.201 2°45.091 8.3196 3.22775 30.380881 11.758648
2005-04-06 08:02:22 51°11.193 2°45.065 8.3232 3.230382 30.407598 12.196871
2005-04-06 08:02:25 51°11.187 2°45.047 8.3209 3.234068 30.443856 12.062033
2005-04-06 08:02:31 51°11.177 2°45.016 8.3266 3.241018 30.51847 12.331708
2005-04-06 08:02:37 51°11.169 2°44.988 8.3257 3.238596 30.492497 11.994614
2005-04-06 08:02:42 51°11.161 2°44.962 8.3224 3.238596 30.492497 11.994614
2005-04-06 08:02:47 51°11.153 2°44.936 8.329 3.22975 30.39886 12.500255
2005-04-06 08:02:51 51°11.147 2°44.915 8.3261 3.24323 30.540087 12.567674
2005-04-06 08:02:56 51°11.138 2°44.887 8.3277 3.235121 30.454113 12.331708
2005-04-06 08:03:01 51°11.13 2°44.861 8.326 3.232804 30.429249 12.668802
2005-04-06 08:03:07 51°11.121 2°44.832 8.3268 3.237964 30.480871 12.533965
2005-04-06 08:03:11 51°11.114 2°44.812 8.3296 3.237964 30.480871 12.533965
2005-04-06 08:03:17 51°11.105 2°44.781 8.3318 3.242177 30.525503 12.533965
2005-04-06 08:03:21 51°11.097 2°44.758 8.3328 3.229856 30.396369 12.297999
2005-04-06 08:03:27 51°11.089 2°44.73 8.3379 3.225749 30.351431 12.635093
2005-04-06 08:03:31 51°11.082 2°44.709 8.3371 3.230277 30.397887 12.871059
2005-04-06 08:03:37 51°11.073 2°44.678 8.3378 3.230277 30.397887 12.871059
2005-04-06 08:03:41 51°11.066 2°44.655 8.3405 3.246178 30.563618 12.904768
2005-04-06 08:03:47 51°11.057 2°44.626 8.3365 3.22975 30.392401 12.466546
2005-04-06 08:03:51 51°11.051 2°44.605 8.3392 3.245968 30.559979 12.095742
2005-04-06 08:03:57 51°11.043 2°44.574 8.3386 3.245125 30.549033 12.76993
2005-04-06 08:04:01 51°11.037 2°44.55 8.337 3.24997 30.59737 12.972187
2005-04-06 08:04:05 51°11.032 2°44.531 8.3384 3.24997 30.59737 12.972187
2005-04-06 08:04:11 51°11.022 2°44.496 8.3418 3.254287 30.640944 13.005896
2005-04-06 08:04:17 51°11.015 2°44.467 8.3387 3.247547 30.56851 12.432836
2005-04-06 08:04:21 51°11.009 2°44.444 8.3423 3.245862 30.550948 13.410409
2005-04-06 08:04:27 51°11.001 2°44.414 8.3416 3.245862 30.550227 13.107024
2005-04-06 08:04:31 51°10.995 2°44.39 8.3401 3.247021 30.563022 13.073315
2005-04-06 08:04:37 51°10.988 2°44.361 8.345 3.254077 30.636579 13.545247
2005-04-06 08:04:41 51°10.982 2°44.337 8.3444 3.254077 30.636579 13.545247
2005-04-06 08:04:47 51°10.974 2°44.307 8.3439 3.2585 30.681977 13.140734
2005-04-06 08:04:52 51°10.968 2°44.281 8.3464 3.257236 30.668075 13.680084
2005-04-06 08:04:56 51°10.961 2°44.257 8.3481 3.256183 30.657817 13.241862
2005-04-06 08:05:01 51°10.954 2°44.231 8.3455 3.254603 30.639899 12.904768
2005-04-06 08:05:07 51°10.947 2°44.201 8.3476 3.263239 30.729228 12.972187
2005-04-06 08:05:11 51°10.941 2°44.18 8.3463 3.263239 30.729228 12.972187
2005-04-06 08:05:17 51°10.934 2°44.148 8.3477 3.257868 30.672492 12.668802
2005-04-06 08:05:22 51°10.927 2°44.121 8.3508 3.264924 30.745352 12.635093
2005-04-06 08:05:25 51°10.923 2°44.105 8.3522 3.265872 30.753787 12.702512
2005-04-06 08:05:31 51°10.914 2°44.073 8.354 3.261027 30.70254 12.938477
2005-04-06 08:05:37 51°10.906 2°44.041 8.3549 3.261027 30.70254 12.938477
2005-04-06 08:05:41 51°10.9 2°44.017 8.3568 3.266082 30.755258 13.039606
2005-04-06 08:05:47 51°10.893 2°43.988 8.3599 3.262502 30.718639 12.365418
2005-04-06 08:05:50 51°10.888 2°43.972 8.3614 3.267241 30.766615 12.500255
2005-04-06 08:05:57 51°10.879 2°43.935 8.362 3.262607 30.716838 12.567674
2005-04-06 08:06:01 51°10.873 2°43.912 8.3614 3.268504 30.776166 12.533965
2005-04-06 08:06:06 51°10.866 2°43.885 8.3647 3.266293 30.750924 12.871059
2005-04-06 08:06:11 51°10.86 2°43.861 8.3662 3.266293 30.750924 12.871059
2005-04-06 08:06:17 51°10.851 2°43.83 8.3715 3.262501 30.710668 12.904768
2005-04-06 08:06:22 51°10.844 2°43.803 8.3675 3.272401 30.812449 12.635093
2005-04-06 08:06:27 51°10.837 2°43.777 8.3697 3.270295 30.787576 12.567674
2005-04-06 08:06:31 51°10.832 2°43.756 8.3708 3.260922 30.689131 12.399127
2005-04-06 08:06:36 51°10.824 2°43.727 8.3732 3.27061 30.789418 13.309281
2005-04-06 08:06:42 51°10.817 2°43.698 8.3716 3.27061 30.789418 13.309281
2005-04-06 08:06:47 51°10.81 2°43.672 8.3732 3.262185 30.698684 12.736221
2005-04-06 08:06:51 51°10.804 2°43.651 8.3751 3.27219 30.801533 12.736221
2005-04-06 08:06:57 51°10.796 2°43.619 8.3761 3.270189 30.779944 13.140734
2005-04-06 08:07:02 51°10.789 2°43.593 8.3758 3.273349 30.811433 13.275571
2005-04-06 08:07:07 51°10.782 2°43.567 8.3762 3.273349 30.811433 13.275571
2005-04-06 08:07:12 51°10.775 2°43.54 8.3778 3.276087 30.838531 12.972187
2005-04-06 08:07:16 51°10.769 2°43.517 8.3772 3.277772 30.855375 13.3767
2005-04-06 08:07:21 51°10.762 2°43.49 8.3795 3.267977 30.752536 13.848631
2005-04-06 08:07:26 51°10.755 2°43.464 8.3831 3.280299 30.880279 13.241862
2005-04-06 08:07:31 51°10.748 2°43.437 8.3834 3.278298 30.857956 13.174443
2005-04-06 08:07:37 51°10.741 2°43.409 8.3813 3.270505 30.77598 13.073315
2005-04-06 08:07:41 51°10.735 2°43.388 8.3834 3.270505 30.77598 13.073315
2005-04-06 08:07:46 51°10.728 2°43.359 8.3829 3.284091 30.916906 12.904768
2005-04-06 08:07:51 51°10.722 2°43.335 8.3846 3.280194 30.87554 13.208153
2005-04-06 08:07:56 51°10.714 2°43.307 8.3845 3.281036 30.883598 13.073315
2005-04-06 08:08:01 51°10.707 2°43.281 8.3855 3.272401 30.791385 12.871059
2005-04-06 08:08:07 51°10.7 2°43.252 8.3873 3.28209 30.891667 13.241862
2005-04-06 08:08:11 51°10.694 2°43.231 8.3904 3.28209 30.891667 13.241862
2005-04-06 08:08:17 51°10.686 2°43.2 8.3897 3.282721 30.898256 12.871059
2005-04-06 08:08:21 51°10.68 2°43.176 8.395 3.278298 30.85141 12.871059
2005-04-06 08:08:27 51°10.673 2°43.147 8.3904 3.284301 30.913273 12.702512
2005-04-06 08:08:31 51°10.667 2°43.127 8.3921 3.277982 30.846662 12.904768
2005-04-06 08:08:37 51°10.659 2°43.095 8.3923 3.277982 30.846662 12.904768
2005-04-06 08:08:41 51°10.653 2°43.072 8.3952 3.2823 30.890951 13.275571
2005-04-06 08:08:45 51°10.647 2°43.051 8.3988 3.293358 31.004087 13.140734
2005-04-06 08:08:51 51°10.639 2°43.019 8.3962 3.27377 30.799121 12.635093
2005-04-06 08:08:56 51°10.633 2°42.993 8.3961 3.279035 30.85255 12.938477
2005-04-06 08:09:01 51°10.626 2°42.967 8.4005 3.292937 30.99604 12.668802
2005-04-06 08:09:06 51°10.619 2°42.941 8.3996 3.292937 30.99604 12.668802
2005-04-06 08:09:12 51°10.612 2°42.912 8.4008 3.295465 31.022403 12.432836
2005-04-06 08:09:17 51°10.605 2°42.886 8.4004 3.29378 31.003366 12.938477
2005-04-06 08:09:21 51°10.599 2°42.863 8.4018 3.283985 30.899781 12.601383
2005-04-06 08:09:26 51°10.593 2°42.839 8.4037 3.283985 30.898325 12.466546
2005-04-06 08:09:31 51°10.586 2°42.813 8.4057 3.29241 30.985436 13.140734
2005-04-06 08:09:37 51°10.578 2°42.782 8.406 3.294095 31.002278 12.76993
2005-04-06 08:09:41 51°10.572 2°42.758 8.4037 3.294095 31.002278 12.76993
2005-04-06 08:09:46 51°10.565 2°42.732 8.4069 3.29062 30.964579 12.533965
2005-04-06 08:09:52 51°10.557 2°42.704 8.4081 3.28904 30.948838 12.601383
2005-04-06 08:09:56 51°10.551 2°42.681 8.4044 3.301573 31.078804 12.76993
2005-04-06 08:10:02 51°10.544 2°42.652 8.4047 3.29715 31.030474 13.107024
2005-04-06 08:10:06 51°10.537 2°42.629 8.4077 3.298203 31.039995 12.533965
2005-04-06 08:10:11 51°10.531 2°42.606 8.4094 3.298203 31.039995 12.533965
2005-04-06 08:10:16 51°10.524 2°42.577 8.41 3.285143 30.90312 12.601383
2005-04-06 08:10:22 51°10.517 2°42.548 8.4117 3.292937 30.983627 12.80364
2005-04-06 08:10:27 51°10.51 2°42.522 8.4098 3.301468 31.071849 12.432836
2005-04-06 08:10:32 51°10.502 2°42.494 8.4112 3.306944 31.130439 13.140734
2005-04-06 08:10:35 51°10.499 2°42.481 8.4123 3.293779 30.992411 12.668802
2005-04-06 08:10:42 51°10.49 2°42.444 8.4124 3.293779 30.992411 12.668802
2005-04-06 08:10:47 51°10.483 2°42.419 8.4169 3.300836 31.064527 12.365418
2005-04-06 08:10:50 51°10.478 2°42.401 8.4153 3.312632 31.186105 12.163161
2005-04-06 08:10:57 51°10.47 2°42.367 8.4141 3.313369 31.193798 12.533965
2005-04-06 08:11:01 51°10.463 2°42.344 8.4106 3.310841 31.166691 12.601383
2005-04-06 08:11:07 51°10.456 2°42.316 8.4146 3.310841 31.166691 12.601383
2005-04-06 08:11:11 51°10.449 2°42.292 8.4181 3.314422 31.204052 12.23058
2005-04-06 08:11:16 51°10.443 2°42.267 8.4126 3.319372 31.254237 12.264289
2005-04-06 08:11:22 51°10.435 2°42.238 8.4141 3.29736 31.023901 12.635093
2005-04-06 08:11:27 51°10.428 2°42.213 8.4128 3.299993 31.04989 12.567674
2005-04-06 08:11:32 51°10.421 2°42.187 8.4172 3.309261 31.147275 12.23058
2005-04-06 08:11:37 51°10.414 2°42.161 8.4148 3.31379 31.195254 12.668802
2005-04-06 08:11:42 51°10.407 2°42.133 8.4147 3.31379 31.195254 12.668802
2005-04-06 08:11:46 51°10.402 2°42.115 8.4136 3.307576 31.128965 12.533965
2005-04-06 08:11:51 51°10.395 2°42.089 8.4127 3.32348 31.294897 12.736221
2005-04-06 08:11:57 51°10.387 2°42.059 8.4159 3.322953 31.289401 12.567674
2005-04-06 08:12:02 51°10.38 2°42.033 8.4162 3.324849 31.308451 12.702512
2005-04-06 08:12:07 51°10.374 2°42.007 8.4158 3.31537 31.208797 12.533965
2005-04-06 08:12:09 51°10.37 2°41.994 8.417 3.31537 31.208797 12.533965
2005-04-06 08:12:17 51°10.36 2°41.956 8.4149 3.316528 31.22162 12.871059
2005-04-06 08:12:21 51°10.354 2°41.933 8.4149 3.318635 31.244335 12.702512
2005-04-06 08:12:27 51°10.347 2°41.904 8.4174 3.327903 31.341811 12.871059
2005-04-06 08:12:31 51°10.341 2°41.884 8.4189 3.331379 31.37736 12.533965
2005-04-06 08:12:35 51°10.336 2°41.863 8.4179 3.331379 31.37736 12.533965
2005-04-06 08:12:42 51°10.327 2°41.827 8.4175 3.330852 31.371123 12.466546
2005-04-06 08:12:45 51°10.322 2°41.809 8.4189 3.320847 31.265944 13.241862
2005-04-06 08:12:50 51°10.315 2°41.783 8.4172 3.329904 31.359749 12.80364
2005-04-06 08:12:56 51°10.307 2°41.752 8.4174 3.333485 31.397137 12.837349
2005-04-06 08:13:01 51°10.301 2°41.726 8.4209 3.329272 31.353152 12.76993
2005-04-06 08:13:07 51°10.293 2°41.698 8.4176 3.324849 31.306239 13.241862
2005-04-06 08:13:11 51°10.287 2°41.674 8.4184 3.324849 31.306239 13.241862
2005-04-06 08:13:16 51°10.281 2°41.649 8.417 3.334012 31.401896 12.837349
2005-04-06 08:13:21 51°10.274 2°41.623 8.424 3.332537 31.385022 13.073315
2005-04-06 08:13:25 51°10.269 2°41.603 8.4226 3.333064 31.391998 13.107024
2005-04-06 08:13:32 51°10.26 2°41.569 8.4185 3.317055 31.224909 13.174443
2005-04-06 08:13:36 51°10.254 2°41.546 8.4213 3.334012 31.401896 13.3767
2005-04-06 08:13:42 51°10.247 2°41.518 8.4213 3.334012 31.401896 13.3767
2005-04-06 08:13:47 51°10.241 2°41.492 8.4183 3.322953 31.286453 12.938477
2005-04-06 08:13:51 51°10.235 2°41.469 8.422 3.339594 31.459449 13.208153
2005-04-06 08:13:57 51°10.227 2°41.438 8.4214 3.338541 31.447708 13.208153
2005-04-06 08:14:01 51°10.222 2°41.418 8.4208 3.340121 31.462726 12.76993
2005-04-06 08:14:06 51°10.215 2°41.392 8.4214 3.340542 31.468608 13.005896
2005-04-06 08:14:11 51°10.209 2°41.369 8.4205 3.340542 31.468608 13.005896
2005-04-06 08:14:17 51°10.201 2°41.339 8.4222 3.351391 31.581196 12.972187
2005-04-06 08:14:21 51°10.195 2°41.315 8.4257 3.33991 31.461267 12.80364
2005-04-06 08:14:25 51°10.189 2°41.295 8.4257 3.329483 31.353135 12.702512
2005-04-06 08:14:31 51°10.182 2°41.267 8.4211 3.339805 31.459426 13.039606
2005-04-06 08:14:36 51°10.175 2°41.239 8.4251 3.339805 31.459426 13.039606
2005-04-06 08:14:42 51°10.167 2°41.208 8.4257 3.338225 31.442928 12.567674
2005-04-06 08:14:47 51°10.161 2°41.185 8.4243 3.340226 31.463826 12.567674
2005-04-06 08:14:51 51°10.155 2°41.164 8.4248 3.340858 31.469685 12.129452
2005-04-06 08:14:56 51°10.148 2°41.135 8.4225 3.349916 31.563558 12.399127
2005-04-06 08:15:01 51°10.142 2°41.11 8.4195 3.336961 31.42751 12.399127
2005-04-06 08:15:05 51°10.137 2°41.089 8.4245 3.33338 31.390123 12.163161
2005-04-06 08:15:12 51°10.127 2°41.053 8.4218 3.33338 31.390123 12.163161
2005-04-06 08:15:17 51°10.121 2°41.03 8.4224 3.329904 31.353103 12.129452
2005-04-06 08:15:22 51°10.114 2°41.005 8.425 3.342227 31.481019 12.028324
2005-04-06 08:15:25 51°10.11 2°40.987 8.4223 3.350548 31.567931 12.331708
2005-04-06 08:15:31 51°10.101 2°40.956 8.4234 3.338014 31.437767 12.095742
2005-04-06 08:15:37 51°10.094 2°40.928 8.4222 3.348547 31.549254 12.297999
2005-04-06 08:15:41 51°10.088 2°40.905 8.4216 3.348547 31.549254 12.297999
2005-04-06 08:15:46 51°10.081 2°40.88 8.4227 3.353392 31.599131 12.163161
2005-04-06 08:15:52 51°10.073 2°40.849 8.423 3.352549 31.590326 11.623811
2005-04-06 08:15:57 51°10.067 2°40.826 8.4193 3.358658 31.654911 12.095742
2005-04-06 08:16:01 51°10.061 2°40.803 8.4212 3.359501 31.663718 11.69123
2005-04-06 08:16:06 51°10.055 2°40.777 8.4212 3.359501 31.663718 11.69123
2005-04-06 08:16:12 51°10.046 2°40.746 8.4208 3.355498 31.621143 11.724939
2005-04-06 08:16:17 51°10.04 2°40.72 8.422 3.345071 31.511461 11.253007
2005-04-06 08:16:21 51°10.034 2°40.7 8.4226 3.354445 31.610881 11.488973
2005-04-06 08:16:26 51°10.027 2°40.675 8.4235 3.360133 31.668832 11.08446
2005-04-06 08:16:31 51°10.02 2°40.649 8.4233 3.359501 31.663718 11.960905
2005-04-06 08:16:37 51°10.013 2°40.621 8.4184 3.34644 31.527248 11.488973
2005-04-06 08:16:41 51°10.007 2°40.598 8.4211 3.34644 31.527248 11.488973
2005-04-06 08:16:46 51°10 2°40.572 8.4193 3.367611 31.748504 10.949623
2005-04-06 08:16:52 51°9.993 2°40.544 8.4184 3.347704 31.540451 11.354136
2005-04-06 08:16:56 51°9.987 2°40.521 8.4135 3.371825 31.792561 11.017042
2005-04-06 08:17:01 51°9.98 2°40.496 8.4134 3.365294 31.724276 11.253007
2005-04-06 08:17:05 51°9.975 2°40.478 8.4135 3.371403 31.788155 11.08446
2005-04-06 08:17:12 51°9.965 2°40.442 8.4131 3.371403 31.788155 11.08446
2005-04-06 08:17:17 51°9.959 2°40.416 8.4106 3.35592 31.62629 10.983332
2005-04-06 08:17:22 51°9.952 2°40.391 8.4066 3.376248 31.84108 11.017042
2005-04-06 08:17:27 51°9.945 2°40.365 8.4066 3.37035 31.780134 10.612529
2005-04-06 08:17:30 51°9.94 2°40.347 8.4065 3.375827 31.840422 10.5114
2005-04-06 08:17:36 51°9.932 2°40.317 8.4045 3.375827 31.840422 10.5114
2005-04-06 08:17:41 51°9.925 2°40.292 8.4035 3.379092 31.876838 10.275435
2005-04-06 08:17:47 51°9.917 2°40.264 8.4005 3.384359 31.931203 10.477691
2005-04-06 08:17:51 51°9.912 2°40.243 8.3998 3.387308 31.962827 10.376563
2005-04-06 08:17:56 51°9.904 2°40.215 8.4003 3.382147 31.911812 10.781076
2005-04-06 08:18:01 51°9.898 2°40.193 8.3979 3.386044 31.954112 9.97205
2005-04-06 08:18:07 51°9.89 2°40.162 8.394 3.386044 31.954112 9.97205
2005-04-06 08:18:11 51°9.884 2°40.142 8.3995 3.385728 31.95231 10.106888
2005-04-06 08:18:16 51°9.877 2°40.114 8.3877 3.387624 31.972914 9.97205
2005-04-06 08:18:22 51°9.869 2°40.086 8.3941 3.395419 32.056809 9.702375
2005-04-06 08:18:27 51°9.862 2°40.06 8.3932 3.392997 32.032187 9.567537
2005-04-06 08:18:30 51°9.858 2°40.043 8.3861 3.39721 32.077078 9.331571
2005-04-06 08:18:37 51°9.849 2°40.009 8.3836 3.396789 32.074932 9.500118
2005-04-06 08:18:41 51°9.844 2°39.989 8.3807 3.396789 32.074932 9.500118
2005-04-06 08:18:45 51°9.838 2°39.966 8.3781 3.400686 32.116525 9.4327
2005-04-06 08:18:51 51°9.83 2°39.938 8.3793 3.406058 32.175101 9.331571
2005-04-06 08:18:57 51°9.822 2°39.908 8.3786 3.39879 32.101198 9.230443
2005-04-06 08:19:01 51°9.816 2°39.885 8.3762 3.405532 32.171856 9.061896
2005-04-06 08:19:05 51°9.81 2°39.865 8.3725 3.40669 32.188555 8.994477
2005-04-06 08:19:12 51°9.802 2°39.832 8.3716 3.40669 32.188555 8.994477
2005-04-06 08:19:16 51°9.796 2°39.809 8.3708 3.403741 32.160667 8.927059
2005-04-06 08:19:22 51°9.788 2°39.781 8.3708 3.403109 32.155557 8.691093
2005-04-06 08:19:27 51°9.782 2°39.756 8.3671 3.392681 32.04776 8.893349
2005-04-06 08:19:31 51°9.776 2°39.733 8.3661 3.413853 32.271278 8.387708
2005-04-06 08:19:37 51°9.768 2°39.706 8.3611 3.413853 32.271278 8.387708
2005-04-06 08:19:41 51°9.762 2°39.683 8.359 3.40332 32.162317 8.589965
2005-04-06 08:19:46 51°9.756 2°39.658 8.3599 3.412063 32.256297 8.28658
2005-04-06 08:19:51 51°9.749 2°39.636 8.3559 3.416697 32.305689 8.556255
2005-04-06 08:19:56 51°9.742 2°39.608 8.3607 3.398474 32.116815 8.151742
2005-04-06 08:20:01 51°9.735 2°39.583 8.3558 3.41912 32.334928 7.983195
2005-04-06 08:20:06 51°9.729 2°39.56 8.3506 3.41912 32.334928 7.983195
2005-04-06 08:20:11 51°9.722 2°39.535 8.3515 3.421122 32.356699 7.949486
2005-04-06 08:20:17 51°9.713 2°39.506 8.3481 3.418594 32.33474 7.915777
2005-04-06 08:20:22 51°9.706 2°39.48 8.3442 3.42365 32.390116 7.915777
2005-04-06 08:20:26 51°9.7 2°39.458 8.3439 3.413221 32.282161 7.949486
2005-04-06 08:20:32 51°9.692 2°39.427 8.3463 3.418594 32.339319 7.309007
2005-04-06 08:20:37 51°9.686 2°39.405 8.3405 3.427653 32.436746 7.544973
2005-04-06 08:20:41 51°9.68 2°39.382 8.3374 3.427653 32.436746 7.544973
2005-04-06 08:20:47 51°9.672 2°39.354 8.3354 3.422597 32.385934 7.814648
2005-04-06 08:20:51 51°9.666 2°39.331 8.332 3.430076 32.466795 7.74723
2005-04-06 08:20:57 51°9.659 2°39.304 8.3348 3.430181 32.469435 7.679811
2005-04-06 08:21:02 51°9.653 2°39.279 8.3362 3.428496 32.454025 7.309007
2005-04-06 08:21:07 51°9.646 2°39.254 8.3291 3.429022 32.461092 7.511264
2005-04-06 08:21:10 51°9.641 2°39.237 8.3269 3.429022 32.461092 7.511264
2005-04-06 08:21:17 51°9.632 2°39.204 8.3221 3.428917 32.461518 7.477554
2005-04-06 08:21:21 51°9.625 2°39.182 8.3262 3.409008 32.255449 7.882067
2005-04-06 08:21:27 51°9.618 2°39.154 8.3211 3.423018 32.404129 6.803366
2005-04-06 08:21:31 51°9.611 2°39.131 8.3208 3.417541 32.348874 7.376426
2005-04-06 08:21:37 51°9.604 2°39.104 8.3155 3.417541 32.348874 7.376426
2005-04-06 08:21:41 51°9.598 2°39.081 8.3184 3.437555 32.560764 7.511264
2005-04-06 08:21:47 51°9.59 2°39.054 8.314 3.431972 32.504368 7.376426
2005-04-06 08:21:51 51°9.584 2°39.031 8.3125 3.428075 32.466463 7.207879
2005-04-06 08:21:57 51°9.577 2°39.004 8.3107 3.420595 32.388618 7.207879
2005-04-06 08:22:01 51°9.571 2°38.981 8.3065 3.43587 32.5515 7.612392
2005-04-06 08:22:07 51°9.563 2°38.954 8.3068 3.431761 32.509064 7.207879
2005-04-06 08:22:12 51°9.556 2°38.928 8.3002 3.431761 32.509064 7.207879
2005-04-06 08:22:16 51°9.55 2°38.906 8.3006 3.426389 32.455646 7.477554
2005-04-06 08:22:21 51°9.543 2°38.881 8.3013 3.436081 32.55987 7.207879
2005-04-06 08:22:27 51°9.536 2°38.854 8.2974 3.436818 32.569167 7.207879
2005-04-06 08:22:31 51°9.53 2°38.834 8.2982 3.445035 32.657939 7.073042
2005-04-06 08:22:36 51°9.523 2°38.806 8.2978 3.444297 32.652493 7.241589
2005-04-06 08:22:42 51°9.516 2°38.778 8.2921 3.444297 32.652493 7.241589
2005-04-06 08:22:46 51°9.51 2°38.759 8.296 3.442928 32.64271 7.073042
2005-04-06 08:22:50 51°9.504 2°38.736 8.2898 3.439557 32.608772 7.275298
2005-04-06 08:22:57 51°9.495 2°38.704 8.293 3.449248 32.712344 7.309007
2005-04-06 08:23:01 51°9.489 2°38.682 8.2916 3.451987 32.742735 7.71352
2005-04-06 08:23:07 51°9.481 2°38.654 8.2889 3.451987 32.742735 7.71352
2005-04-06 08:23:10 51°9.477 2°38.639 8.2874 3.447458 32.696579 7.949486
2005-04-06 08:23:17 51°9.466 2°38.603 8.2877 3.445878 32.681486 7.443845
2005-04-06 08:23:21 51°9.461 2°38.583 8.2836 3.444508 32.667839 7.949486
2005-04-06 08:23:27 51°9.453 2°38.556 8.2831 3.446931 32.696446 7.780939
2005-04-06 08:23:32 51°9.446 2°38.531 8.2804 3.433658 32.555929 7.848358
2005-04-06 08:23:37 51°9.439 2°38.506 8.2809 3.435238 32.574101 7.915777
2005-04-06 08:23:41 51°9.433 2°38.486 8.2827 3.435238 32.574101 7.915777
2005-04-06 08:23:46 51°9.426 2°38.459 8.2791 3.434079 32.564215 7.780939
2005-04-06 08:23:51 51°9.42 2°38.437 8.278 3.443033 32.660035 7.780939
2005-04-06 08:23:57 51°9.411 2°38.407 8.2827 3.442085 32.652367 8.016905
2005-04-06 08:24:01 51°9.406 2°38.387 8.2802 3.452409 32.761893 8.185452
2005-04-06 08:24:07 51°9.398 2°38.358 8.2856 3.429971 32.527897 7.780939
2005-04-06 08:24:11 51°9.392 2°38.336 8.2775 3.429971 32.527897 7.780939
2005-04-06 08:24:17 51°9.384 2°38.309 8.276 3.441769 32.652129 7.646101
2005-04-06 08:24:21 51°9.378 2°38.287 8.2744 3.449881 32.737579 8.151742
2005-04-06 08:24:27 51°9.371 2°38.26 8.2749 3.442085 32.65623 7.71352
2005-04-06 08:24:31 51°9.365 2°38.24 8.2725 3.444087 32.678086 7.780939
2005-04-06 08:24:37 51°9.357 2°38.21 8.2733 3.444403 32.680642 8.151742
2005-04-06 08:24:41 51°9.351 2°38.188 8.2742 3.444403 32.680642 8.151742
2005-04-06 08:24:46 51°9.344 2°38.163 8.2694 3.435449 32.586338 7.679811
2005-04-06 08:24:52 51°9.336 2°38.136 8.2751 3.440821 32.646006 7.848358
2005-04-06 08:24:57 51°9.33 2°38.112 8.2755 3.437766 32.614601 7.71352
2005-04-06 08:25:01 51°9.325 2°38.091 8.2689 3.426706 32.499674 7.612392
2005-04-06 08:25:07 51°9.319 2°38.066 8.2733 3.426706 32.499674 7.612392
2005-04-06 08:25:11 51°9.315 2°38.048 8.2715 3.443771 32.68017 7.915777
2005-04-06 08:25:17 51°9.31 2°38.023 8.2694 3.42818 32.51597 8.084324
2005-04-06 08:25:21 51°9.306 2°38.004 8.27 3.448406 32.729009 7.949486
2005-04-06 08:25:27 51°9.301 2°37.982 8.2653 3.437029 32.60915 7.646101
2005-04-06 08:25:31 51°9.297 2°37.965 8.2653 3.435133 32.588408 7.949486
2005-04-06 08:25:37 51°9.293 2°37.946 8.2641 3.441559 32.657637 7.915777
2005-04-06 08:25:41 51°9.288 2°37.932 8.2618 3.441559 32.657637 7.915777
2005-04-06 08:25:47 51°9.283 2°37.916 8.2611 3.441559 32.657637 7.544973
2005-04-06 08:25:51 51°9.278 2°37.903 8.2641 3.447985 32.727667 7.679811
2005-04-06 08:25:57 51°9.273 2°37.89 8.2622 3.457466 32.827607 7.882067
2005-04-06 08:26:02 51°9.267 2°37.877 8.2624 3.448722 32.737763 7.578683
2005-04-06 08:26:07 51°9.262 2°37.865 8.2643 3.44946 32.747861 7.679811
2005-04-06 08:26:11 51°9.258 2°37.856 8.262 3.44946 32.747861 7.679811
2005-04-06 08:26:16 51°9.253 2°37.843 8.2622 3.455464 32.812718 7.74723
2005-04-06 08:26:22 51°9.249 2°37.83 8.2624 3.436397 32.61407 7.578683
2005-04-06 08:26:25 51°9.246 2°37.822 8.2596 3.442296 32.674685 7.74723
2005-04-06 08:26:31 51°9.241 2°37.809 8.2618 3.442612 32.678789 7.74723
2005-04-06 08:26:37 51°9.237 2°37.797 8.2609 3.449249 32.747191 7.443845
2005-04-06 08:26:42 51°9.233 2°37.786 8.2589 3.449249 32.747191 7.443845
2005-04-06 08:26:47 51°9.228 2°37.776 8.257 3.44198 32.670581 6.971913
2005-04-06 08:26:51 51°9.225 2°37.768 8.2585 3.44946 32.750962 6.904494
2005-04-06 08:26:57 51°9.22 2°37.756 8.2587 3.427865 32.523417 6.803366
2005-04-06 08:27:02 51°9.216 2°37.746 8.2587 3.44967 32.753959 6.870785
2005-04-06 08:27:07 51°9.211 2°37.737 8.2619 3.442823 32.681009 6.971913
2005-04-06 08:27:12 51°9.207 2°37.728 8.2632 3.442823 32.681009 6.971913
2005-04-06 08:27:17 51°9.203 2°37.719 8.2615 3.434501 32.594093 6.870785
2005-04-06 08:27:21 51°9.199 2°37.71 8.2598 3.433553 32.58642 7.106751
2005-04-06 08:27:26 51°9.194 2°37.702 8.2574 3.436924 32.621936 6.870785
2005-04-06 08:27:31 51°9.19 2°37.694 8.258 3.443771 32.694097 7.073042
2005-04-06 08:27:37 51°9.185 2°37.683 8.2615 3.436292 32.614504 7.241589
2005-04-06 08:27:41 51°9.181 2°37.674 8.2585 3.436292 32.614504 7.241589
2005-04-06 08:27:46 51°9.177 2°37.664 8.2599 3.443982 32.69477 6.870785
2005-04-06 08:27:52 51°9.173 2°37.653 8.2602 3.436081 32.61074 6.803366
2005-04-06 08:27:57 51°9.169 2°37.642 8.259 3.445246 32.708094 6.634819
2005-04-06 08:28:01 51°9.165 2°37.632 8.2617 3.44335 32.689656 6.803366
2005-04-06 08:28:06 51°9.162 2°37.622 8.2605 3.448722 32.74629 6.5674
2005-04-06 08:28:11 51°9.158 2°37.609 8.2593 3.448722 32.74629 6.5674
2005-04-06 08:28:17 51°9.155 2°37.596 8.26 3.439873 32.652245 6.837076
2005-04-06 08:28:21 51°9.152 2°37.585 8.2588 3.437135 32.623384 6.702238
2005-04-06 08:28:27 51°9.149 2°37.571 8.2632 3.449776 32.75662 6.466272
2005-04-06 08:28:32 51°9.145 2°37.557 8.2581 3.442507 32.680774 6.499982
2005-04-06 08:28:37 51°9.142 2°37.545 8.2591 3.450513 32.764395 6.466272
2005-04-06 08:28:42 51°9.139 2°37.532 8.2589 3.450513 32.764395 6.466272
2005-04-06 08:28:46 51°9.136 2°37.52 8.2607 3.436819 32.619282 6.837076
2005-04-06 08:28:51 51°9.133 2°37.508 8.2579 3.435554 32.605963 6.634819
2005-04-06 08:28:57 51°9.129 2°37.491 8.2606 3.451672 32.776613 6.938204
2005-04-06 08:29:02 51°9.126 2°37.479 8.2656 3.449144 32.749181 6.702238
2005-04-06 08:29:07 51°9.123 2°37.465 8.259 3.436081 32.613057 6.735947
2005-04-06 08:29:12 51°9.12 2°37.452 8.2597 3.436081 32.613057 6.735947
2005-04-06 08:29:17 51°9.117 2°37.438 8.2611 3.438925 32.643027 6.870785
2005-04-06 08:29:22 51°9.114 2°37.424 8.2652 3.445878 32.716305 6.803366
2005-04-06 08:29:27 51°9.112 2°37.41 8.2598 3.431552 32.566105 6.870785
2005-04-06 08:29:31 51°9.11 2°37.397 8.2603 3.444087 32.697428 6.971913
2005-04-06 08:29:37 51°9.108 2°37.379 8.2603 3.439557 32.648142 6.971913
2005-04-06 08:29:42 51°9.106 2°37.366 8.2589 3.439557 32.648142 6.971913
2005-04-06 08:29:47 51°9.104 2°37.351 8.2594 3.446931 32.72586 6.769657
2005-04-06 08:29:51 51°9.102 2°37.338 8.2614 3.454832 32.80916 6.60111
2005-04-06 08:29:57 51°9.1 2°37.322 8.2566 3.449354 32.750627 7.073042
2005-04-06 08:30:02 51°9.099 2°37.307 8.2568 3.452093 32.780279 6.803366
2005-04-06 08:30:06 51°9.097 2°37.295 8.2576 3.432078 32.570883 6.668529
2005-04-06 08:30:11 51°9.096 2°37.281 8.2581 3.432078 32.570883 6.668529
2005-04-06 08:30:17 51°9.096 2°37.265 8.2541 3.448301 32.741847 6.466272
2005-04-06 08:30:22 51°9.095 2°37.251 8.2563 3.449249 32.751067 6.735947
2005-04-06 08:30:27 51°9.095 2°37.24 8.254 3.452093 32.781832 6.702238
2005-04-06 08:30:31 51°9.095 2°37.231 8.2578 3.449881 32.760058 6.971913
2005-04-06 08:30:35 51°9.095 2°37.223 8.2537 3.449881 32.760058 6.971913
2005-04-06 08:30:42 51°9.093 2°37.21 8.2559 3.442718 32.685316 6.803366
2005-04-06 08:30:46 51°9.093 2°37.205 8.254 3.452199 32.784495 6.870785
2005-04-06 08:30:51 51°9.091 2°37.197 8.2535 3.449776 32.759723 6.634819